Wetterdaten: Donnerstag, 11.02.2016
Datum Zeit Temp. Aussen Temp. o. S. +5cm Feuchte Auss BlattFeu 1 Luftdruck Regen Sonnenschein Regendauer Solar Windben Empfang
11.02.2016 00:00 3,8 C 3,9 C 2,8 C 97 % 15 lf 1000,7 hPa 0,0 l/m 0 min 0 min 0 W/m 12,6 km/h (3 Bft) 91,49 %
11.02.2016 00:02 3,8 C 3,9 C 2,8 C 97 % 15 lf 1000,7 hPa 0,0 l/m 0 min 0 min 0 W/m 12,6 km/h (3 Bft) 6,25 %
11.02.2016 00:06 3,8 C 3,9 C 2,8 C 97 % 15 lf 1000,7 hPa 0,0 l/m 0 min 0 min 0 W/m 18,8 km/h (3 Bft) 88,68 %
11.02.2016 00:08 3,8 C 3,9 C 2,8 C 97 % 15 lf 1000,8 hPa 0,0 l/m 0 min 0 min 0 W/m 14,6 km/h (3 Bft) 97,87 %
11.02.2016 00:10 3,8 C 3,9 C 2,8 C 97 % 15 lf 1000,8 hPa 0,0 l/m 0 min 0 min 0 W/m 14,6 km/h (3 Bft) 97,87 %
11.02.2016 00:12 3,8 C 3,9 C 2,2 C 97 % 15 lf 1000,8 hPa 0,0 l/m 0 min 0 min 0 W/m 18,8 km/h (3 Bft) 95,74 %
11.02.2016 00:14 3,8 C 3,9 C 2,2 C 97 % 15 lf 1000,8 hPa 0,0 l/m 0 min 2 min 0 W/m 18,8 km/h (3 Bft) 97,87 %
11.02.2016 00:16 3,8 C 3,9 C 2,2 C 97 % 15 lf 1000,9 hPa 0,0 l/m 0 min 0 min 0 W/m 16,7 km/h (3 Bft) 97,83 %
11.02.2016 00:18 3,8 C 3,9 C 2,2 C 97 % 15 lf 1000,9 hPa 0,0 l/m 0 min 0 min 0 W/m 16,7 km/h (3 Bft) 97,87 %
11.02.2016 00:20 3,8 C 3,9 C 2,2 C 97 % 15 lf 1001,0 hPa 0,0 l/m 0 min 0 min 0 W/m 20,9 km/h (4 Bft) 97,87 %
11.02.2016 00:22 3,8 C 3,9 C 2,2 C 97 % 15 lf 1000,9 hPa 0,0 l/m 0 min 0 min 0 W/m 16,7 km/h (3 Bft) 100,00 %
11.02.2016 00:24 3,8 C 3,9 C 2,2 C 97 % 15 lf 1000,9 hPa 0,0 l/m 0 min 0 min 0 W/m 18,8 km/h (3 Bft) 100,00 %
11.02.2016 00:26 3,8 C 3,9 C 2,2 C 97 % 15 lf 1001,0 hPa 0,0 l/m 0 min 0 min 0 W/m 14,6 km/h (3 Bft) 95,65 %
11.02.2016 00:28 3,8 C 3,9 C 2,2 C 97 % 15 lf 1000,9 hPa 0,0 l/m 0 min 0 min 0 W/m 10,5 km/h (2 Bft) 100,00 %
11.02.2016 00:30 3,8 C 3,3 C 2,2 C 97 % 15 lf 1001,0 hPa 0,0 l/m 0 min 0 min 0 W/m 14,6 km/h (3 Bft) 97,87 %
11.02.2016 00:32 3,8 C 3,9 C 2,2 C 97 % 15 lf 1001,0 hPa 0,0 l/m 0 min 0 min 0 W/m 18,8 km/h (3 Bft) 97,87 %
11.02.2016 00:34 3,7 C 3,3 C 2,2 C 97 % 15 lf 1001,0 hPa 0,0 l/m 0 min 0 min 0 W/m 18,8 km/h (3 Bft) 100,00 %
11.02.2016 00:36 3,7 C 3,3 C 2,2 C 97 % 15 lf 1001,0 hPa 0,0 l/m 0 min 0 min 0 W/m 18,8 km/h (3 Bft) 97,67 %
11.02.2016 00:38 3,7 C 3,3 C 2,2 C 97 % 15 lf 1001,0 hPa 0,0 l/m 0 min 0 min 0 W/m 16,7 km/h (3 Bft) 100,00 %
11.02.2016 00:40 3,7 C 3,3 C 2,2 C 97 % 15 lf 1001,0 hPa 0,0 l/m 0 min 0 min 0 W/m 12,6 km/h (3 Bft) 100,00 %
11.02.2016 00:42 3,7 C 3,3 C 2,2 C 97 % 15 lf 1001,0 hPa 0,0 l/m 0 min 0 min 0 W/m 18,8 km/h (3 Bft) 95,74 %
11.02.2016 00:44 3,7 C 3,3 C 1,7 C 97 % 15 lf 1001,1 hPa 0,0 l/m 0 min 0 min 0 W/m 14,6 km/h (3 Bft) 100,00 %
11.02.2016 00:46 3,6 C 3,3 C 1,7 C 97 % 15 lf 1001,1 hPa 0,0 l/m 0 min 0 min 0 W/m 12,6 km/h (3 Bft) 93,62 %
11.02.2016 00:48 3,6 C 2,8 C 1,7 C 97 % 15 lf 1001,2 hPa 0,0 l/m 0 min 0 min 0 W/m 12,6 km/h (3 Bft) 100,00 %
11.02.2016 00:50 3,6 C 2,8 C 1,7 C 97 % 15 lf 1001,2 hPa 0,0 l/m 0 min 0 min 0 W/m 10,5 km/h (2 Bft) 100,00 %
11.02.2016 00:52 3,6 C 2,8 C 1,7 C 97 % 15 lf 1001,4 hPa 0,0 l/m 0 min 0 min 0 W/m 12,6 km/h (3 Bft) 98,39 %
11.02.2016 00:54 3,6 C 2,8 C 1,7 C 97 % 15 lf 1001,4 hPa 0,0 l/m 0 min 0 min 0 W/m 10,5 km/h (2 Bft) 100,00 %
11.02.2016 00:56 3,5 C 2,8 C 1,7 C 97 % 15 lf 1001,5 hPa 0,0 l/m 0 min 0 min 0 W/m 10,5 km/h (2 Bft) 97,87 %
11.02.2016 00:58 3,5 C 2,8 C 1,7 C 97 % 15 lf 1001,5 hPa 0,0 l/m 0 min 0 min 0 W/m 8,4 km/h (2 Bft) 100,00 %
11.02.2016 01:00 3,4 C 2,8 C 1,7 C 97 % 15 lf 1001,6 hPa 0,0 l/m 0 min 0 min 0 W/m 10,5 km/h (2 Bft) 97,87 %
11.02.2016 01:02 3,4 C 2,8 C 1,7 C 97 % 15 lf 1001,6 hPa 0,0 l/m 0 min 0 min 0 W/m 10,5 km/h (2 Bft) 100,00 %
11.02.2016 01:04 3,4 C 2,8 C 1,7 C 97 % 15 lf 1001,7 hPa 0,0 l/m 0 min 0 min 0 W/m 10,5 km/h (2 Bft) 93,62 %
11.02.2016 01:06 3,4 C 2,8 C 1,7 C 97 % 15 lf 1001,6 hPa 0,0 l/m 0 min 0 min 0 W/m 8,4 km/h (2 Bft) 100,00 %
11.02.2016 01:08 3,3 C 2,8 C 1,7 C 97 % 15 lf 1001,7 hPa 0,0 l/m 0 min 0 min 0 W/m 14,6 km/h (3 Bft) 97,87 %
11.02.2016 01:10 3,3 C 2,8 C 1,7 C 97 % 15 lf 1001,7 hPa 0,0 l/m 0 min 0 min 0 W/m 12,6 km/h (3 Bft) 95,74 %
11.02.2016 01:12 3,3 C 2,8 C 1,7 C 97 % 15 lf 1001,7 hPa 0,0 l/m 0 min 0 min 0 W/m 14,6 km/h (3 Bft) 100,00 %
11.02.2016 01:14 3,2 C 2,8 C 1,7 C 97 % 15 lf 1001,7 hPa 0,0 l/m 0 min 0 min 0 W/m 12,6 km/h (3 Bft) 95,65 %
11.02.2016 01:16 3,2 C 2,8 C 1,7 C 97 % 15 lf 1001,7 hPa 0,0 l/m 0 min 0 min 0 W/m 12,6 km/h (3 Bft) 93,62 %
11.02.2016 01:18 3,2 C 2,8 C 1,7 C 97 % 15 lf 1001,7 hPa 0,0 l/m 0 min 0 min 0 W/m 14,6 km/h (3 Bft) 95,74 %
11.02.2016 01:20 3,2 C 2,8 C 1,7 C 97 % 15 lf 1001,7 hPa 0,0 l/m 0 min 0 min 0 W/m 12,6 km/h (3 Bft) 97,87 %
11.02.2016 01:22 3,2 C 2,8 C 1,7 C 97 % 15 lf 1001,7 hPa 0,0 l/m 0 min 0 min 0 W/m 10,5 km/h (2 Bft) 96,00 %
11.02.2016 01:24 3,2 C 2,8 C 1,7 C 97 % 15 lf 1001,7 hPa 0,0 l/m 0 min 0 min 0 W/m 14,6 km/h (3 Bft) 93,62 %
11.02.2016 01:26 3,2 C 2,8 C 1,7 C 97 % 15 lf 1001,7 hPa 0,0 l/m 0 min 0 min 0 W/m 14,6 km/h (3 Bft) 93,48 %
11.02.2016 01:28 3,2 C 2,8 C 1,7 C 97 % 15 lf 1001,8 hPa 0,0 l/m 0 min 2 min 0 W/m 16,7 km/h (3 Bft) 95,74 %
11.02.2016 01:30 3,2 C 2,8 C 1,7 C 97 % 15 lf 1001,8 hPa 0,0 l/m 0 min 0 min 0 W/m 10,5 km/h (2 Bft) 95,74 %
11.02.2016 01:32 3,2 C 2,8 C 1,7 C 97 % 15 lf 1001,7 hPa 0,0 l/m 0 min 0 min 0 W/m 18,8 km/h (3 Bft) 89,58 %
11.02.2016 01:34 3,1 C 2,8 C 1,7 C 97 % 15 lf 1001,8 hPa 0,0 l/m 0 min 0 min 0 W/m 16,7 km/h (3 Bft) 91,49 %
11.02.2016 01:36 3,1 C 2,8 C 1,7 C 97 % 15 lf 1001,7 hPa 0,0 l/m 0 min 0 min 0 W/m 12,6 km/h (3 Bft) 97,83 %
11.02.2016 01:38 3,1 C 2,8 C 1,7 C 97 % 15 lf 1001,8 hPa 0,0 l/m 0 min 2 min 0 W/m 12,6 km/h (3 Bft) 95,74 %
11.02.2016 01:40 3,1 C 2,8 C 1,7 C 97 % 15 lf 1001,8 hPa 0,0 l/m 0 min 0 min 0 W/m 14,6 km/h (3 Bft) 93,62 %
11.02.2016 01:42 3,1 C 2,8 C 1,7 C 97 % 15 lf 1001,8 hPa 0,0 l/m 0 min 0 min 0 W/m 12,6 km/h (3 Bft) 95,74 %
11.02.2016 01:44 3,1 C 2,8 C 1,7 C 97 % 15 lf 1001,8 hPa 0,0 l/m 0 min 0 min 0 W/m 12,6 km/h (3 Bft) 95,74 %
11.02.2016 01:46 3,1 C 2,8 C 1,7 C 97 % 15 lf 1001,8 hPa 0,0 l/m 0 min 0 min 0 W/m 14,6 km/h (3 Bft) 97,87 %
11.02.2016 01:48 3,0 C 2,8 C 1,7 C 97 % 15 lf 1001,9 hPa 0,0 l/m 0 min 2 min 0 W/m 14,6 km/h (3 Bft) 93,48 %
11.02.2016 01:50 3,0 C 2,8 C 1,7 C 97 % 15 lf 1001,9 hPa 0,0 l/m 0 min 0 min 0 W/m 14,6 km/h (3 Bft) 95,74 %
11.02.2016 01:52 3,0 C 2,8 C 1,7 C 97 % 15 lf 1001,9 hPa 0,0 l/m 0 min 2 min 0 W/m 20,9 km/h (4 Bft) 97,87 %
11.02.2016 01:54 3,0 C 2,8 C 1,7 C 97 % 15 lf 1001,9 hPa 0,0 l/m 0 min 0 min 0 W/m 18,8 km/h (3 Bft) 97,87 %
11.02.2016 01:56 3,0 C 2,8 C 1,7 C 97 % 15 lf 1001,9 hPa 0,0 l/m 0 min 0 min 0 W/m 14,6 km/h (3 Bft) 95,74 %
11.02.2016 01:58 3,0 C 2,8 C 1,7 C 97 % 15 lf 1001,9 hPa 0,0 l/m 0 min 2 min 0 W/m 16,7 km/h (3 Bft) 95,74 %
11.02.2016 02:00 3,0 C 2,8 C 1,7 C 97 % 15 lf 1001,9 hPa 0,0 l/m 0 min 2 min 0 W/m 16,7 km/h (3 Bft) 97,83 %
11.02.2016 02:02 3,0 C 2,8 C 1,7 C 97 % 15 lf 1001,9 hPa 0,0 l/m 0 min 2 min 0 W/m 10,5 km/h (2 Bft) 95,83 %
11.02.2016 02:04 3,0 C 2,8 C 1,7 C 97 % 15 lf 1001,9 hPa 0,0 l/m 0 min 2 min 0 W/m 16,7 km/h (3 Bft) 95,74 %
11.02.2016 02:06 3,0 C 2,8 C 1,7 C 97 % 15 lf 1001,9 hPa 0,0 l/m 0 min 2 min 0 W/m 14,6 km/h (3 Bft) 95,83 %
11.02.2016 02:08 3,1 C 2,8 C 1,7 C 97 % 15 lf 1001,9 hPa 0,0 l/m 0 min 2 min 0 W/m 16,7 km/h (3 Bft) 97,87 %
11.02.2016 02:10 3,1 C 2,8 C 1,7 C 97 % 15 lf 1001,9 hPa 0,0 l/m 0 min 2 min 0 W/m 14,6 km/h (3 Bft) 97,87 %
11.02.2016 02:12 3,1 C 2,8 C 1,7 C 97 % 15 lf 1001,9 hPa 0,0 l/m 0 min 2 min 0 W/m 14,6 km/h (3 Bft) 97,83 %
11.02.2016 02:14 3,1 C 2,8 C 1,7 C 97 % 15 lf 1002,0 hPa 0,0 l/m 0 min 0 min 0 W/m 14,6 km/h (3 Bft) 95,74 %
11.02.2016 02:16 3,1 C 3,3 C 1,7 C 97 % 15 lf 1001,9 hPa 0,0 l/m 0 min 2 min 0 W/m 18,8 km/h (3 Bft) 93,62 %
11.02.2016 02:18 3,1 C 3,3 C 2,2 C 97 % 15 lf 1002,0 hPa 0,0 l/m 0 min 2 min 0 W/m 14,6 km/h (3 Bft) 97,87 %
11.02.2016 02:20 3,1 C 3,3 C 2,2 C 97 % 15 lf 1001,9 hPa 0,0 l/m 0 min 0 min 0 W/m 14,6 km/h (3 Bft) 97,87 %
11.02.2016 02:22 3,1 C 3,3 C 2,2 C 97 % 15 lf 1002,0 hPa 0,0 l/m 0 min 0 min 0 W/m 14,6 km/h (3 Bft) 95,74 %
11.02.2016 02:24 3,1 C 3,3 C 2,2 C 97 % 15 lf 1002,0 hPa 0,0 l/m 0 min 0 min 0 W/m 16,7 km/h (3 Bft) 95,65 %
11.02.2016 02:26 3,2 C 3,3 C 2,2 C 97 % 15 lf 1002,0 hPa 0,0 l/m 0 min 0 min 0 W/m 16,7 km/h (3 Bft) 93,62 %
11.02.2016 02:28 3,2 C 3,3 C 2,2 C 97 % 15 lf 1002,1 hPa 0,0 l/m 0 min 0 min 0 W/m 16,7 km/h (3 Bft) 93,62 %
11.02.2016 02:30 3,2 C 3,3 C 2,2 C 97 % 15 lf 1002,0 hPa 0,0 l/m 0 min 0 min 0 W/m 16,7 km/h (3 Bft) 95,74 %
11.02.2016 02:32 3,2 C 3,3 C 2,2 C 97 % 15 lf 1002,0 hPa 0,0 l/m 0 min 0 min 0 W/m 14,6 km/h (3 Bft) 95,74 %
11.02.2016 02:34 3,2 C 3,3 C 2,2 C 97 % 15 lf 1002,0 hPa 0,0 l/m 0 min 0 min 0 W/m 12,6 km/h (3 Bft) 93,48 %
11.02.2016 02:36 3,2 C 3,3 C 2,2 C 97 % 15 lf 1002,1 hPa 0,0 l/m 0 min 0 min 0 W/m 14,6 km/h (3 Bft) 94,44 %
11.02.2016 02:38 3,2 C 3,3 C 2,2 C 97 % 15 lf 1002,1 hPa 0,0 l/m 0 min 0 min 0 W/m 25,1 km/h (4 Bft) 95,65 %
11.02.2016 02:40 3,3 C 3,3 C 2,2 C 97 % 15 lf 1002,2 hPa 0,0 l/m 0 min 0 min 0 W/m 25,1 km/h (4 Bft) 95,74 %
11.02.2016 02:42 3,3 C 3,3 C 2,2 C 97 % 15 lf 1002,2 hPa 0,0 l/m 0 min 0 min 0 W/m 18,8 km/h (3 Bft) 94,34 %
11.02.2016 02:44 3,3 C 3,3 C 2,2 C 97 % 15 lf 1002,2 hPa 0,0 l/m 0 min 0 min 0 W/m 16,7 km/h (3 Bft) 91,49 %
11.02.2016 02:46 3,3 C 3,3 C 2,2 C 97 % 15 lf 1002,2 hPa 0,0 l/m 0 min 0 min 0 W/m 18,8 km/h (3 Bft) 95,12 %
11.02.2016 02:48 3,3 C 3,3 C 2,2 C 97 % 15 lf 1002,1 hPa 0,0 l/m 0 min 0 min 0 W/m 14,6 km/h (3 Bft) 95,74 %
11.02.2016 02:50 3,3 C 3,3 C 2,2 C 97 % 15 lf 1002,1 hPa 0,0 l/m 0 min 0 min 0 W/m 14,6 km/h (3 Bft) 94,23 %
11.02.2016 02:52 3,3 C 3,3 C 2,2 C 97 % 15 lf 1002,1 hPa 0,0 l/m 0 min 0 min 0 W/m 14,6 km/h (3 Bft) 97,92 %
11.02.2016 02:54 3,3 C 3,3 C 2,2 C 97 % 15 lf 1002,1 hPa 0,0 l/m 0 min 0 min 0 W/m 12,6 km/h (3 Bft) 97,87 %
11.02.2016 02:56 3,4 C 3,3 C 2,2 C 97 % 15 lf 1002,2 hPa 0,0 l/m 0 min 0 min 0 W/m 18,8 km/h (3 Bft) 93,62 %
11.02.2016 02:58 3,4 C 3,3 C 2,2 C 97 % 15 lf 1002,2 hPa 0,0 l/m 0 min 0 min 0 W/m 12,6 km/h (3 Bft) 95,74 %
11.02.2016 03:00 3,4 C 3,3 C 2,2 C 97 % 15 lf 1002,2 hPa 0,0 l/m 0 min 0 min 0 W/m 14,6 km/h (3 Bft) 97,83 %
11.02.2016 03:02 3,4 C 3,3 C 2,2 C 97 % 15 lf 1002,3 hPa 0,0 l/m 0 min 0 min 0 W/m 14,6 km/h (3 Bft) 100,00 %
11.02.2016 03:04 3,4 C 3,3 C 2,2 C 97 % 15 lf 1002,3 hPa 0,0 l/m 0 min 0 min 0 W/m 14,6 km/h (3 Bft) 95,74 %
11.02.2016 03:06 3,4 C 3,3 C 2,2 C 97 % 15 lf 1002,3 hPa 0,0 l/m 0 min 0 min 0 W/m 16,7 km/h (3 Bft) 93,62 %
11.02.2016 03:08 3,4 C 3,3 C 2,2 C 97 % 15 lf 1002,2 hPa 0,0 l/m 0 min 0 min 0 W/m 16,7 km/h (3 Bft) 96,23 %
11.02.2016 03:10 3,4 C 3,3 C 2,2 C 97 % 15 lf 1002,3 hPa 0,0 l/m 0 min 0 min 0 W/m 14,6 km/h (3 Bft) 95,12 %
11.02.2016 03:12 3,4 C 3,3 C 2,2 C 97 % 15 lf 1002,3 hPa 0,0 l/m 0 min 0 min 0 W/m 14,6 km/h (3 Bft) 96,23 %
11.02.2016 03:14 3,4 C 3,3 C 2,2 C 97 % 15 lf 1002,3 hPa 0,0 l/m 0 min 0 min 0 W/m 14,6 km/h (3 Bft) 95,74 %
11.02.2016 03:16 3,4 C 3,3 C 2,2 C 97 % 15 lf 1002,3 hPa 0,0 l/m 0 min 0 min 0 W/m 14,6 km/h (3 Bft) 91,49 %
11.02.2016 03:18 3,4 C 3,3 C 2,2 C 97 % 15 lf 1002,3 hPa 0,0 l/m 0 min 0 min 0 W/m 16,7 km/h (3 Bft) 95,74 %
11.02.2016 03:20 3,4 C 3,3 C 2,2 C 97 % 15 lf 1002,3 hPa 0,0 l/m 0 min 0 min 0 W/m 14,6 km/h (3 Bft) 95,74 %
11.02.2016 03:22 3,4 C 3,3 C 2,2 C 97 % 15 lf 1002,3 hPa 0,0 l/m 0 min 0 min 0 W/m 18,8 km/h (3 Bft) 93,48 %
11.02.2016 03:24 3,4 C 3,3 C 2,2 C 97 % 15 lf 1002,3 hPa 0,0 l/m 0 min 0 min 0 W/m 16,7 km/h (3 Bft) 93,62 %
11.02.2016 03:26 3,4 C 3,3 C 2,2 C 97 % 15 lf 1002,3 hPa 0,0 l/m 0 min 0 min 0 W/m 18,8 km/h (3 Bft) 91,49 %
11.02.2016 03:28 3,4 C 3,3 C 2,2 C 97 % 15 lf 1002,3 hPa 0,0 l/m 0 min 0 min 0 W/m 14,6 km/h (3 Bft) 93,62 %
11.02.2016 03:30 3,4 C 3,3 C 2,2 C 97 % 15 lf 1002,3 hPa 0,0 l/m 0 min 0 min 0 W/m 18,8 km/h (3 Bft) 95,74 %
11.02.2016 03:32 3,4 C 3,3 C 2,2 C 97 % 15 lf 1002,4 hPa 0,0 l/m 0 min 0 min 0 W/m 18,8 km/h (3 Bft) 95,65 %
11.02.2016 03:34 3,4 C 3,3 C 2,2 C 97 % 15 lf 1002,3 hPa 0,0 l/m 0 min 0 min 0 W/m 16,7 km/h (3 Bft) 100,00 %
11.02.2016 03:36 3,4 C 3,3 C 2,2 C 97 % 15 lf 1002,4 hPa 0,0 l/m 0 min 0 min 0 W/m 18,8 km/h (3 Bft) 97,87 %
11.02.2016 03:38 3,4 C 3,3 C 2,2 C 97 % 15 lf 1002,4 hPa 0,0 l/m 0 min 0 min 0 W/m 14,6 km/h (3 Bft) 100,00 %
11.02.2016 03:40 3,4 C 3,3 C 2,2 C 97 % 15 lf 1002,3 hPa 0,0 l/m 0 min 0 min 0 W/m 16,7 km/h (3 Bft) 97,87 %
11.02.2016 03:42 3,4 C 3,3 C 2,2 C 97 % 15 lf 1002,4 hPa 0,0 l/m 0 min 0 min 0 W/m 16,7 km/h (3 Bft) 97,87 %
11.02.2016 03:44 3,4 C 3,3 C 2,2 C 97 % 15 lf 1002,4 hPa 0,0 l/m 0 min 0 min 0 W/m 14,6 km/h (3 Bft) 97,83 %
11.02.2016 03:46 3,4 C 3,3 C 2,2 C 97 % 15 lf 1002,4 hPa 0,0 l/m 0 min 0 min 0 W/m 18,8 km/h (3 Bft) 97,87 %
11.02.2016 03:48 3,4 C 3,3 C 2,2 C 97 % 15 lf 1002,4 hPa 0,0 l/m 0 min 0 min 0 W/m 16,7 km/h (3 Bft) 100,00 %
11.02.2016 03:50 3,4 C 3,3 C 2,2 C 97 % 15 lf 1002,4 hPa 0,0 l/m 0 min 0 min 0 W/m 18,8 km/h (3 Bft) 100,00 %
11.02.2016 03:52 3,4 C 3,3 C 2,2 C 97 % 15 lf 1002,4 hPa 0,0 l/m 0 min 0 min 0 W/m 18,8 km/h (3 Bft) 95,74 %
11.02.2016 03:54 3,4 C 3,3 C 2,2 C 97 % 15 lf 1002,4 hPa 0,0 l/m 0 min 0 min 0 W/m 16,7 km/h (3 Bft) 97,83 %
11.02.2016 03:56 3,5 C 3,3 C 2,2 C 97 % 15 lf 1002,4 hPa 0,0 l/m 0 min 0 min 0 W/m 18,8 km/h (3 Bft) 94,44 %
11.02.2016 03:58 3,5 C 3,3 C 2,2 C 97 % 15 lf 1002,4 hPa 0,0 l/m 0 min 0 min 0 W/m 18,8 km/h (3 Bft) 100,00 %
11.02.2016 04:00 3,5 C 3,3 C 2,2 C 97 % 15 lf 1002,4 hPa 0,0 l/m 0 min 0 min 0 W/m 16,7 km/h (3 Bft) 92,11 %
11.02.2016 04:05 3,5 C 3,3 C 2,2 C 97 % 15 lf 1002,3 hPa 0,0 l/m 0 min 0 min 0 W/m 14,6 km/h (3 Bft) 98,39 %
11.02.2016 04:06 3,5 C 3,3 C 2,2 C 97 % 15 lf 1002,3 hPa 0,0 l/m 0 min 0 min 0 W/m 8,4 km/h (2 Bft) 100,00 %
11.02.2016 04:08 3,5 C 3,3 C 2,2 C 97 % 15 lf 1002,3 hPa 0,0 l/m 0 min 0 min 0 W/m 18,8 km/h (3 Bft) 100,00 %
11.02.2016 04:10 3,5 C 3,3 C 2,2 C 97 % 15 lf 1002,4 hPa 0,0 l/m 0 min 0 min 0 W/m 16,7 km/h (3 Bft) 100,00 %
11.02.2016 04:12 3,5 C 3,3 C 2,2 C 97 % 15 lf 1002,4 hPa 0,0 l/m 0 min 0 min 0 W/m 16,7 km/h (3 Bft) 97,87 %
11.02.2016 04:14 3,5 C 3,3 C 2,2 C 97 % 15 lf 1002,4 hPa 0,0 l/m 0 min 0 min 0 W/m 14,6 km/h (3 Bft) 100,00 %
11.02.2016 04:16 3,5 C 3,3 C 2,2 C 97 % 15 lf 1002,4 hPa 0,0 l/m 0 min 0 min 0 W/m 14,6 km/h (3 Bft) 95,74 %
11.02.2016 04:18 3,5 C 3,3 C 2,2 C 97 % 15 lf 1002,4 hPa 0,0 l/m 0 min 0 min 0 W/m 14,6 km/h (3 Bft) 97,83 %
11.02.2016 04:20 3,5 C 3,3 C 2,2 C 97 % 15 lf 1002,4 hPa 0,0 l/m 0 min 0 min 0 W/m 18,8 km/h (3 Bft) 97,87 %
11.02.2016 04:22 3,5 C 3,3 C 2,2 C 97 % 15 lf 1002,4 hPa 0,0 l/m 0 min 0 min 0 W/m 20,9 km/h (4 Bft) 95,74 %
11.02.2016 04:24 3,5 C 3,3 C 2,2 C 97 % 15 lf 1002,4 hPa 0,0 l/m 0 min 0 min 0 W/m 16,7 km/h (3 Bft) 93,62 %
11.02.2016 04:26 3,5 C 3,3 C 2,2 C 97 % 15 lf 1002,4 hPa 0,0 l/m 0 min 0 min 0 W/m 25,1 km/h (4 Bft) 95,74 %
11.02.2016 04:28 3,5 C 3,3 C 2,2 C 97 % 15 lf 1002,4 hPa 0,0 l/m 0 min 0 min 0 W/m 18,8 km/h (3 Bft) 93,62 %
11.02.2016 04:30 3,5 C 3,3 C 2,2 C 97 % 15 lf 1002,4 hPa 0,0 l/m 0 min 0 min 0 W/m 20,9 km/h (4 Bft) 93,48 %
11.02.2016 04:32 3,5 C 3,3 C 2,2 C 97 % 15 lf 1002,4 hPa 0,0 l/m 0 min 0 min 0 W/m 14,6 km/h (3 Bft) 93,62 %
11.02.2016 04:34 3,5 C 3,3 C 2,2 C 97 % 15 lf 1002,3 hPa 0,0 l/m 0 min 0 min 0 W/m 25,1 km/h (4 Bft) 95,74 %
11.02.2016 04:36 3,4 C 3,3 C 2,2 C 97 % 15 lf 1002,4 hPa 0,0 l/m 0 min 0 min 0 W/m 18,8 km/h (3 Bft) 94,29 %
11.02.2016 04:38 3,4 C 3,3 C 2,2 C 97 % 15 lf 1002,4 hPa 0,0 l/m 0 min 0 min 0 W/m 18,8 km/h (3 Bft) 98,08 %
11.02.2016 04:40 3,4 C 3,3 C 2,2 C 97 % 15 lf 1002,4 hPa 0,0 l/m 0 min 0 min 0 W/m 20,9 km/h (4 Bft) 95,74 %
11.02.2016 04:42 3,4 C 3,3 C 2,2 C 97 % 15 lf 1002,4 hPa 0,0 l/m 0 min 0 min 0 W/m 25,1 km/h (4 Bft) 91,49 %
11.02.2016 04:44 3,4 C 3,3 C 2,2 C 97 % 15 lf 1002,5 hPa 0,0 l/m 0 min 0 min 0 W/m 23,0 km/h (4 Bft) 95,65 %
11.02.2016 04:46 3,4 C 3,3 C 2,2 C 97 % 15 lf 1002,4 hPa 0,0 l/m 0 min 0 min 0 W/m 20,9 km/h (4 Bft) 89,36 %
11.02.2016 04:48 3,4 C 3,3 C 2,2 C 97 % 15 lf 1002,5 hPa 0,0 l/m 0 min 0 min 0 W/m 14,6 km/h (3 Bft) 93,62 %
11.02.2016 04:50 3,4 C 3,3 C 2,2 C 97 % 15 lf 1002,5 hPa 0,0 l/m 0 min 0 min 0 W/m 25,1 km/h (4 Bft) 93,62 %
11.02.2016 04:52 3,4 C 3,3 C 2,2 C 97 % 15 lf 1002,5 hPa 0,0 l/m 0 min 0 min 0 W/m 20,9 km/h (4 Bft) 93,62 %
11.02.2016 04:54 3,4 C 3,3 C 1,7 C 97 % 15 lf 1002,5 hPa 0,0 l/m 0 min 0 min 0 W/m 18,8 km/h (3 Bft) 89,36 %
11.02.2016 04:56 3,4 C 3,3 C 1,7 C 97 % 15 lf 1002,5 hPa 0,0 l/m 0 min 0 min 0 W/m 18,8 km/h (3 Bft) 92,45 %
11.02.2016 04:58 3,3 C 2,8 C 1,7 C 97 % 15 lf 1002,5 hPa 0,0 l/m 0 min 0 min 0 W/m 14,6 km/h (3 Bft) 91,43 %
11.02.2016 05:00 3,3 C 2,8 C 1,7 C 97 % 15 lf 1002,6 hPa 0,0 l/m 0 min 0 min 0 W/m 14,6 km/h (3 Bft) 92,31 %
11.02.2016 05:02 3,3 C 2,8 C 1,7 C 97 % 15 lf 1002,6 hPa 0,0 l/m 0 min 0 min 0 W/m 14,6 km/h (3 Bft) 94,00 %
11.02.2016 05:04 3,3 C 2,8 C 1,7 C 97 % 15 lf 1002,5 hPa 0,0 l/m 0 min 0 min 0 W/m 18,8 km/h (3 Bft) 93,62 %
11.02.2016 05:06 3,3 C 2,8 C 1,7 C 97 % 15 lf 1002,6 hPa 0,0 l/m 0 min 0 min 0 W/m 18,8 km/h (3 Bft) 95,65 %
11.02.2016 05:08 3,3 C 2,8 C 1,7 C 97 % 15 lf 1002,6 hPa 0,0 l/m 0 min 0 min 0 W/m 14,6 km/h (3 Bft) 95,74 %
11.02.2016 05:10 3,2 C 2,8 C 1,7 C 97 % 15 lf 1002,7 hPa 0,0 l/m 0 min 0 min 0 W/m 16,7 km/h (3 Bft) 97,83 %
11.02.2016 05:12 3,2 C 2,8 C 1,7 C 97 % 15 lf 1002,6 hPa 0,0 l/m 0 min 0 min 0 W/m 16,7 km/h (3 Bft) 95,74 %
11.02.2016 05:14 3,2 C 2,8 C 1,7 C 97 % 15 lf 1002,6 hPa 0,0 l/m 0 min 0 min 0 W/m 18,8 km/h (3 Bft) 91,49 %
11.02.2016 05:16 3,2 C 2,8 C 1,7 C 97 % 15 lf 1002,6 hPa 0,0 l/m 0 min 0 min 0 W/m 16,7 km/h (3 Bft) 95,74 %
11.02.2016 05:18 3,2 C 2,8 C 1,7 C 97 % 15 lf 1002,6 hPa 0,0 l/m 0 min 0 min 0 W/m 18,8 km/h (3 Bft) 95,65 %
11.02.2016 05:20 3,2 C 2,8 C 1,7 C 97 % 15 lf 1002,7 hPa 0,0 l/m 0 min 0 min 0 W/m 16,7 km/h (3 Bft) 97,14 %
11.02.2016 05:22 3,2 C 2,8 C 1,7 C 97 % 15 lf 1002,7 hPa 0,0 l/m 0 min 2 min 0 W/m 20,9 km/h (4 Bft) 94,34 %
11.02.2016 05:24 3,2 C 2,8 C 1,7 C 97 % 15 lf 1002,7 hPa 0,0 l/m 0 min 2 min 0 W/m 16,7 km/h (3 Bft) 100,00 %
11.02.2016 05:26 3,2 C 2,8 C 1,7 C 97 % 15 lf 1002,8 hPa 0,0 l/m 0 min 2 min 0 W/m 14,6 km/h (3 Bft) 100,00 %
11.02.2016 05:28 3,1 C 3,3 C 1,7 C 97 % 15 lf 1002,8 hPa 0,0 l/m 0 min 0 min 0 W/m 23,0 km/h (4 Bft) 98,00 %
11.02.2016 05:30 3,2 C 3,3 C 2,2 C 97 % 15 lf 1002,8 hPa 0,0 l/m 0 min 0 min 0 W/m 23,0 km/h (4 Bft) 97,83 %
11.02.2016 05:32 3,2 C 3,3 C 2,2 C 97 % 15 lf 1002,9 hPa 0,0 l/m 0 min 2 min 0 W/m 16,7 km/h (3 Bft) 100,00 %
11.02.2016 05:34 3,2 C 3,3 C 2,2 C 97 % 15 lf 1002,8 hPa 0,0 l/m 0 min 0 min 0 W/m 25,1 km/h (4 Bft) 100,00 %
11.02.2016 05:36 3,2 C 3,3 C 2,2 C 97 % 15 lf 1002,8 hPa 0,0 l/m 0 min 0 min 0 W/m 18,8 km/h (3 Bft) 97,87 %
11.02.2016 05:38 3,2 C 3,3 C 2,2 C 97 % 15 lf 1002,8 hPa 0,0 l/m 0 min 0 min 0 W/m 18,8 km/h (3 Bft) 97,87 %
11.02.2016 05:40 3,2 C 3,3 C 2,2 C 97 % 15 lf 1002,8 hPa 0,0 l/m 0 min 0 min 0 W/m 18,8 km/h (3 Bft) 97,83 %
11.02.2016 05:42 3,3 C 3,3 C 2,2 C 97 % 15 lf 1002,8 hPa 0,0 l/m 0 min 0 min 0 W/m 18,8 km/h (3 Bft) 100,00 %
11.02.2016 05:44 3,3 C 3,3 C 2,2 C 97 % 15 lf 1002,9 hPa 0,0 l/m 0 min 0 min 0 W/m 16,7 km/h (3 Bft) 100,00 %
11.02.2016 05:46 3,3 C 3,3 C 2,2 C 97 % 15 lf 1002,8 hPa 0,0 l/m 0 min 0 min 0 W/m 18,8 km/h (3 Bft) 97,87 %
11.02.2016 05:48 3,3 C 3,3 C 2,2 C 97 % 15 lf 1002,8 hPa 0,0 l/m 0 min 0 min 0 W/m 18,8 km/h (3 Bft) 100,00 %
11.02.2016 05:50 3,3 C 3,3 C 2,2 C 97 % 15 lf 1002,9 hPa 0,0 l/m 0 min 0 min 0 W/m 18,8 km/h (3 Bft) 97,87 %
11.02.2016 05:52 3,3 C 3,3 C 2,2 C 97 % 15 lf 1002,9 hPa 0,0 l/m 0 min 0 min 0 W/m 20,9 km/h (4 Bft) 97,83 %
11.02.2016 05:54 3,3 C 3,3 C 2,2 C 97 % 15 lf 1002,9 hPa 0,0 l/m 0 min 0 min 0 W/m 16,7 km/h (3 Bft) 100,00 %
11.02.2016 05:56 3,3 C 3,3 C 2,2 C 97 % 15 lf 1002,9 hPa 0,0 l/m 0 min 0 min 0 W/m 18,8 km/h (3 Bft) 100,00 %
11.02.2016 05:58 3,3 C 3,3 C 2,2 C 97 % 15 lf 1002,8 hPa 0,0 l/m 0 min 0 min 0 W/m 20,9 km/h (4 Bft) 100,00 %
11.02.2016 06:00 3,3 C 3,3 C 2,2 C 97 % 15 lf 1002,8 hPa 0,0 l/m 0 min 0 min 0 W/m 14,6 km/h (3 Bft) 98,00 %
11.02.2016 06:02 3,3 C 3,3 C 2,2 C 97 % 15 lf 1002,8 hPa 0,0 l/m 0 min 0 min 0 W/m 16,7 km/h (3 Bft) 97,87 %
11.02.2016 06:04 3,3 C 3,3 C 2,2 C 97 % 15 lf 1002,7 hPa 0,0 l/m 0 min 0 min 0 W/m 14,6 km/h (3 Bft) 97,87 %
11.02.2016 06:06 3,3 C 3,3 C 2,2 C 97 % 15 lf 1002,7 hPa 0,0 l/m 0 min 0 min 0 W/m 18,8 km/h (3 Bft) 100,00 %
11.02.2016 06:08 3,3 C 3,3 C 2,2 C 97 % 15 lf 1002,8 hPa 0,0 l/m 0 min 0 min 0 W/m 14,6 km/h (3 Bft) 97,87 %
11.02.2016 06:10 3,3 C 2,8 C 2,2 C 97 % 15 lf 1002,8 hPa 0,0 l/m 0 min 0 min 0 W/m 14,6 km/h (3 Bft) 95,74 %
11.02.2016 06:12 3,3 C 2,8 C 1,7 C 97 % 15 lf 1002,8 hPa 0,0 l/m 0 min 0 min 0 W/m 16,7 km/h (3 Bft) 95,74 %
11.02.2016 06:14 3,3 C 2,8 C 1,7 C 97 % 15 lf 1002,9 hPa 0,0 l/m 0 min 0 min 0 W/m 18,8 km/h (3 Bft) 100,00 %
11.02.2016 06:16 3,3 C 2,8 C 1,7 C 97 % 15 lf 1002,9 hPa 0,0 l/m 0 min 0 min 0 W/m 16,7 km/h (3 Bft) 100,00 %
11.02.2016 06:18 3,2 C 2,8 C 1,7 C 97 % 15 lf 1002,8 hPa 0,0 l/m 0 min 0 min 0 W/m 18,8 km/h (3 Bft) 95,74 %
11.02.2016 06:20 3,2 C 2,8 C 1,7 C 97 % 15 lf 1002,8 hPa 0,0 l/m 0 min 0 min 0 W/m 20,9 km/h (4 Bft) 95,74 %
11.02.2016 06:22 3,2 C 2,8 C 1,7 C 97 % 15 lf 1002,8 hPa 0,0 l/m 0 min 0 min 0 W/m 18,8 km/h (3 Bft) 97,87 %
11.02.2016 06:24 3,2 C 2,8 C 1,7 C 97 % 15 lf 1002,8 hPa 0,0 l/m 0 min 0 min 0 W/m 16,7 km/h (3 Bft) 100,00 %
11.02.2016 06:26 3,2 C 2,8 C 1,7 C 97 % 15 lf 1002,8 hPa 0,0 l/m 0 min 0 min 0 W/m 18,8 km/h (3 Bft) 97,83 %
11.02.2016 06:28 3,2 C 2,8 C 1,7 C 97 % 15 lf 1002,9 hPa 0,0 l/m 0 min 0 min 0 W/m 14,6 km/h (3 Bft) 97,87 %
11.02.2016 06:30 3,2 C 2,8 C 1,7 C 97 % 15 lf 1002,9 hPa 0,0 l/m 0 min 0 min 0 W/m 18,8 km/h (3 Bft) 97,87 %
11.02.2016 06:32 3,2 C 2,8 C 1,7 C 97 % 15 lf 1002,9 hPa 0,0 l/m 0 min 0 min 0 W/m 14,6 km/h (3 Bft) 95,74 %
11.02.2016 06:34 3,1 C 2,8 C 1,7 C 97 % 15 lf 1003,0 hPa 0,0 l/m 0 min 0 min 0 W/m 16,7 km/h (3 Bft) 100,00 %
11.02.2016 06:36 3,1 C 2,8 C 1,7 C 97 % 15 lf 1003,0 hPa 0,0 l/m 0 min 0 min 0 W/m 16,7 km/h (3 Bft) 100,00 %
11.02.2016 06:38 3,1 C 2,8 C 1,7 C 97 % 15 lf 1002,9 hPa 0,0 l/m 0 min 0 min 0 W/m 16,7 km/h (3 Bft) 96,43 %
11.02.2016 06:40 3,1 C 2,8 C 1,7 C 96 % 15 lf 1003,0 hPa 0,0 l/m 0 min 0 min 0 W/m 20,9 km/h (4 Bft) 97,83 %
11.02.2016 06:42 3,1 C 2,8 C 1,7 C 96 % 15 lf 1003,0 hPa 0,0 l/m 0 min 0 min 0 W/m 18,8 km/h (3 Bft) 93,62 %
11.02.2016 06:44 3,1 C 2,8 C 1,7 C 96 % 15 lf 1003,0 hPa 0,0 l/m 0 min 0 min 0 W/m 18,8 km/h (3 Bft) 93,62 %
11.02.2016 06:46 3,1 C 2,8 C 1,7 C 97 % 15 lf 1003,0 hPa 0,0 l/m 0 min 0 min 0 W/m 27,2 km/h (4 Bft) 95,74 %
11.02.2016 06:48 3,0 C 2,8 C 1,7 C 97 % 15 lf 1003,0 hPa 0,0 l/m 0 min 0 min 0 W/m 16,7 km/h (3 Bft) 93,62 %
11.02.2016 06:50 3,0 C 2,8 C 1,7 C 97 % 15 lf 1003,0 hPa 0,0 l/m 0 min 0 min 0 W/m 18,8 km/h (3 Bft) 95,65 %
11.02.2016 06:52 3,0 C 2,8 C 1,7 C 97 % 15 lf 1003,0 hPa 0,0 l/m 0 min 0 min 0 W/m 16,7 km/h (3 Bft) 95,74 %
11.02.2016 06:54 3,0 C 2,8 C 1,7 C 97 % 15 lf 1003,0 hPa 0,0 l/m 0 min 0 min 0 W/m 20,9 km/h (4 Bft) 95,74 %
11.02.2016 06:56 3,0 C 2,8 C 1,7 C 97 % 15 lf 1003,0 hPa 0,0 l/m 0 min 0 min 0 W/m 12,6 km/h (3 Bft) 94,00 %
11.02.2016 06:58 3,0 C 2,8 C 1,7 C 97 % 15 lf 1003,0 hPa 0,0 l/m 0 min 0 min 0 W/m 14,6 km/h (3 Bft) 91,49 %
11.02.2016 07:00 3,0 C 2,8 C 1,7 C 96 % 15 lf 1003,0 hPa 0,0 l/m 0 min 0 min 0 W/m 14,6 km/h (3 Bft) 91,30 %
11.02.2016 07:02 2,9 C 2,8 C 1,7 C 96 % 15 lf 1003,0 hPa 0,0 l/m 0 min 0 min 0 W/m 16,7 km/h (3 Bft) 93,62 %
11.02.2016 07:04 2,9 C 2,8 C 1,7 C 96 % 15 lf 1003,0 hPa 0,0 l/m 0 min 0 min 0 W/m 16,7 km/h (3 Bft) 93,62 %
11.02.2016 07:06 2,9 C 2,8 C 1,7 C 96 % 15 lf 1003,0 hPa 0,0 l/m 0 min 0 min 0 W/m 16,7 km/h (3 Bft) 97,87 %
11.02.2016 07:08 2,9 C 2,8 C 1,7 C 96 % 15 lf 1003,1 hPa 0,0 l/m 0 min 0 min 0 W/m 14,6 km/h (3 Bft) 97,87 %
11.02.2016 07:10 2,9 C 2,8 C 1,7 C 96 % 15 lf 1003,1 hPa 0,0 l/m 0 min 0 min 0 W/m 16,7 km/h (3 Bft) 93,62 %
11.02.2016 07:12 2,9 C 2,8 C 1,7 C 96 % 15 lf 1003,0 hPa 0,0 l/m 0 min 0 min 0 W/m 18,8 km/h (3 Bft) 95,74 %
11.02.2016 07:14 2,9 C 2,8 C 1,7 C 96 % 15 lf 1003,1 hPa 0,0 l/m 0 min 0 min 0 W/m 20,9 km/h (4 Bft) 95,65 %
11.02.2016 07:16 2,9 C 2,8 C 1,7 C 96 % 15 lf 1003,2 hPa 0,0 l/m 0 min 0 min 0 W/m 16,7 km/h (3 Bft) 87,23 %
11.02.2016 07:18 2,9 C 2,8 C 1,7 C 96 % 15 lf 1003,1 hPa 0,0 l/m 0 min 0 min 0 W/m 20,9 km/h (4 Bft) 89,36 %
11.02.2016 07:20 2,9 C 2,8 C 1,7 C 96 % 15 lf 1003,0 hPa 0,0 l/m 0 min 0 min 0 W/m 14,6 km/h (3 Bft) 91,49 %
11.02.2016 07:22 2,9 C 2,8 C 1,7 C 96 % 15 lf 1003,1 hPa 0,0 l/m 0 min 0 min 0 W/m 23,0 km/h (4 Bft) 91,49 %
11.02.2016 07:24 2,9 C 2,8 C 1,7 C 96 % 15 lf 1003,1 hPa 0,0 l/m 0 min 0 min 0 W/m 16,7 km/h (3 Bft) 93,48 %
11.02.2016 07:26 2,9 C 2,8 C 1,7 C 96 % 15 lf 1003,1 hPa 0,0 l/m 0 min 0 min 0 W/m 14,6 km/h (3 Bft) 93,62 %
11.02.2016 07:28 2,8 C 2,2 C 1,7 C 96 % 15 lf 1003,2 hPa 0,0 l/m 0 min 0 min 0 W/m 12,6 km/h (3 Bft) 93,62 %
11.02.2016 07:30 2,8 C 2,2 C 1,1 C 96 % 15 lf 1003,2 hPa 0,0 l/m 0 min 0 min 0 W/m 18,8 km/h (3 Bft) 91,49 %
11.02.2016 07:32 2,8 C 2,2 C 1,1 C 96 % 15 lf 1003,3 hPa 0,0 l/m 0 min 0 min 0 W/m 18,8 km/h (3 Bft) 88,57 %
11.02.2016 07:34 2,8 C 2,2 C 1,1 C 96 % 15 lf 1003,2 hPa 0,0 l/m 0 min 0 min 0 W/m 12,6 km/h (3 Bft) 92,31 %
11.02.2016 07:36 2,8 C 2,2 C 1,1 C 96 % 15 lf 1003,3 hPa 0,0 l/m 0 min 0 min 0 W/m 12,6 km/h (3 Bft) 89,36 %
11.02.2016 07:38 2,8 C 2,2 C 1,1 C 96 % 15 lf 1003,3 hPa 0,0 l/m 0 min 0 min 0 W/m 12,6 km/h (3 Bft) 93,48 %
11.02.2016 07:40 2,7 C 2,2 C 1,1 C 96 % 15 lf 1003,3 hPa 0,0 l/m 0 min 0 min 0 W/m 16,7 km/h (3 Bft) 93,62 %
11.02.2016 07:42 2,7 C 2,2 C 1,1 C 96 % 15 lf 1003,3 hPa 0,0 l/m 0 min 0 min 2 W/m 14,6 km/h (3 Bft) 93,62 %
11.02.2016 07:44 2,7 C 2,2 C 1,1 C 96 % 15 lf 1003,4 hPa 0,0 l/m 0 min 0 min 5 W/m 12,6 km/h (3 Bft) 89,36 %
11.02.2016 07:46 2,7 C 2,2 C 1,1 C 96 % 15 lf 1003,4 hPa 0,0 l/m 0 min 0 min 5 W/m 12,6 km/h (3 Bft) 93,62 %
11.02.2016 07:48 2,6 C 2,2 C 1,1 C 96 % 15 lf 1003,4 hPa 0,0 l/m 0 min 0 min 5 W/m 12,6 km/h (3 Bft) 93,62 %
11.02.2016 07:50 2,6 C 2,2 C 1,1 C 96 % 15 lf 1003,5 hPa 0,0 l/m 0 min 2 min 6 W/m 12,6 km/h (3 Bft) 93,02 %
11.02.2016 07:52 2,6 C 2,2 C 1,1 C 96 % 15 lf 1003,5 hPa 0,0 l/m 0 min 0 min 7 W/m 12,6 km/h (3 Bft) 86,96 %
11.02.2016 07:54 2,6 C 2,2 C 1,1 C 96 % 15 lf 1003,5 hPa 0,0 l/m 0 min 0 min 7 W/m 12,6 km/h (3 Bft) 93,62 %
11.02.2016 07:56 2,6 C 2,2 C 1,1 C 96 % 15 lf 1003,5 hPa 0,0 l/m 0 min 0 min 7 W/m 12,6 km/h (3 Bft) 93,62 %
11.02.2016 07:58 2,5 C 2,2 C 1,1 C 96 % 15 lf 1003,5 hPa 0,0 l/m 0 min 0 min 8 W/m 10,5 km/h (2 Bft) 93,62 %
11.02.2016 08:00 2,5 C 2,2 C 1,1 C 96 % 15 lf 1003,5 hPa 0,0 l/m 0 min 0 min 9 W/m 14,6 km/h (3 Bft) 97,87 %
11.02.2016 08:02 2,5 C 2,2 C 1,1 C 96 % 15 lf 1003,5 hPa 0,0 l/m 0 min 0 min 9 W/m 14,6 km/h (3 Bft) 97,87 %
11.02.2016 08:04 2,4 C 2,2 C 1,1 C 96 % 15 lf 1003,5 hPa 0,0 l/m 0 min 0 min 11 W/m 10,5 km/h (2 Bft) 97,83 %
11.02.2016 08:06 2,4 C 2,2 C 1,1 C 96 % 15 lf 1003,5 hPa 0,0 l/m 0 min 0 min 13 W/m 14,6 km/h (3 Bft) 98,00 %
11.02.2016 08:08 2,4 C 2,2 C 1,1 C 96 % 15 lf 1003,5 hPa 0,0 l/m 0 min 0 min 14 W/m 12,6 km/h (3 Bft) 97,87 %
11.02.2016 08:10 2,4 C 2,2 C 1,1 C 96 % 15 lf 1003,6 hPa 0,0 l/m 0 min 0 min 14 W/m 8,4 km/h (2 Bft) 100,00 %
11.02.2016 08:12 2,4 C 2,2 C 1,1 C 96 % 15 lf 1003,6 hPa 0,0 l/m 0 min 0 min 16 W/m 12,6 km/h (3 Bft) 97,87 %
11.02.2016 08:14 2,4 C 2,2 C 1,1 C 96 % 15 lf 1003,5 hPa 0,0 l/m 2 min 0 min 19 W/m 12,6 km/h (3 Bft) 91,49 %
11.02.2016 08:16 2,4 C 2,2 C 1,1 C 96 % 15 lf 1003,6 hPa 0,0 l/m 2 min 0 min 21 W/m 12,6 km/h (3 Bft) 97,87 %
11.02.2016 08:18 2,4 C 2,2 C 1,1 C 96 % 15 lf 1003,6 hPa 0,0 l/m 2 min 0 min 24 W/m 12,6 km/h (3 Bft) 97,87 %
11.02.2016 08:20 2,4 C 2,2 C 1,1 C 96 % 15 lf 1003,7 hPa 0,0 l/m 2 min 0 min 25 W/m 12,6 km/h (3 Bft) 100,00 %
11.02.2016 08:22 2,4 C 2,2 C 1,1 C 96 % 15 lf 1003,7 hPa 0,0 l/m 0 min 0 min 25 W/m 14,6 km/h (3 Bft) 95,74 %
11.02.2016 08:24 2,4 C 2,2 C 1,1 C 96 % 15 lf 1003,7 hPa 0,0 l/m 0 min 0 min 27 W/m 12,6 km/h (3 Bft) 97,87 %
11.02.2016 08:26 2,4 C 2,2 C 1,1 C 96 % 15 lf 1003,7 hPa 0,0 l/m 0 min 0 min 27 W/m 16,7 km/h (3 Bft) 95,65 %
11.02.2016 08:28 2,4 C 2,2 C 1,1 C 96 % 15 lf 1003,7 hPa 0,0 l/m 0 min 0 min 31 W/m 16,7 km/h (3 Bft) 95,74 %
11.02.2016 08:30 2,4 C 2,8 C 1,7 C 96 % 15 lf 1003,7 hPa 0,0 l/m 2 min 0 min 40 W/m 16,7 km/h (3 Bft) 97,87 %
11.02.2016 08:32 2,4 C 2,8 C 1,7 C 96 % 15 lf 1003,7 hPa 0,0 l/m 2 min 2 min 42 W/m 16,7 km/h (3 Bft) 97,87 %
11.02.2016 08:34 2,4 C 2,8 C 1,7 C 96 % 15 lf 1003,8 hPa 0,0 l/m 2 min 2 min 41 W/m 20,9 km/h (4 Bft) 97,87 %
11.02.2016 08:36 2,5 C 2,8 C 1,7 C 96 % 15 lf 1003,8 hPa 0,0 l/m 2 min 2 min 45 W/m 18,8 km/h (3 Bft) 97,87 %
11.02.2016 08:38 2,5 C 2,8 C 1,7 C 96 % 15 lf 1003,7 hPa 0,0 l/m 2 min 2 min 48 W/m 10,5 km/h (2 Bft) 95,65 %
11.02.2016 08:40 2,5 C 2,8 C 1,7 C 96 % 15 lf 1003,8 hPa 0,0 l/m 2 min 2 min 54 W/m 16,7 km/h (3 Bft) 97,87 %
11.02.2016 08:42 2,5 C 2,8 C 1,7 C 96 % 15 lf 1003,7 hPa 0,0 l/m 2 min 2 min 51 W/m 16,7 km/h (3 Bft) 97,87 %
11.02.2016 08:44 2,5 C 2,8 C 1,7 C 96 % 15 lf 1003,9 hPa 0,0 l/m 0 min 2 min 47 W/m 8,4 km/h (2 Bft) 95,74 %
11.02.2016 08:46 2,5 C 2,8 C 1,7 C 96 % 15 lf 1003,9 hPa 0,0 l/m 0 min 0 min 52 W/m 10,5 km/h (2 Bft) 97,87 %
11.02.2016 08:48 2,5 C 2,8 C 1,7 C 96 % 15 lf 1003,9 hPa 0,0 l/m 0 min 0 min 56 W/m 14,6 km/h (3 Bft) 95,65 %
11.02.2016 08:50 2,5 C 2,8 C 1,7 C 96 % 15 lf 1003,9 hPa 0,0 l/m 0 min 0 min 58 W/m 16,7 km/h (3 Bft) 95,74 %
11.02.2016 08:52 2,6 C 2,8 C 1,7 C 96 % 15 lf 1003,9 hPa 0,0 l/m 2 min 0 min 62 W/m 14,6 km/h (3 Bft) 97,87 %
11.02.2016 08:54 2,5 C 2,8 C 1,7 C 96 % 15 lf 1003,9 hPa 0,0 l/m 2 min 0 min 64 W/m 16,7 km/h (3 Bft) 95,35 %
11.02.2016 08:56 2,6 C 2,8 C 1,7 C 96 % 15 lf 1003,9 hPa 0,0 l/m 2 min 0 min 67 W/m 18,8 km/h (3 Bft) 100,00 %
11.02.2016 08:58 2,6 C 2,8 C 1,7 C 96 % 15 lf 1003,9 hPa 0,0 l/m 2 min 0 min 70 W/m 20,9 km/h (4 Bft) 98,04 %
11.02.2016 09:00 2,6 C 2,8 C 1,7 C 96 % 15 lf 1004,0 hPa 0,0 l/m 2 min 0 min 79 W/m 14,6 km/h (3 Bft) 95,65 %
11.02.2016 09:02 2,6 C 3,3 C 1,7 C 96 % 15 lf 1004,0 hPa 0,0 l/m 2 min 0 min 89 W/m 16,7 km/h (3 Bft) 95,74 %
11.02.2016 09:04 2,6 C 3,3 C 1,7 C 96 % 15 lf 1004,0 hPa 0,0 l/m 2 min 0 min 88 W/m 18,8 km/h (3 Bft) 100,00 %
11.02.2016 09:06 2,6 C 3,3 C 1,7 C 96 % 15 lf 1004,0 hPa 0,0 l/m 2 min 0 min 83 W/m 18,8 km/h (3 Bft) 95,74 %
11.02.2016 09:08 2,6 C 3,3 C 1,7 C 96 % 15 lf 1004,0 hPa 0,0 l/m 2 min 2 min 102 W/m 16,7 km/h (3 Bft) 97,87 %
11.02.2016 09:10 2,7 C 3,3 C 1,7 C 96 % 15 lf 1004,0 hPa 0,0 l/m 2 min 0 min 101 W/m 18,8 km/h (3 Bft) 97,87 %
11.02.2016 09:12 2,7 C 3,3 C 1,7 C 96 % 15 lf 1004,1 hPa 0,0 l/m 2 min 0 min 98 W/m 18,8 km/h (3 Bft) 97,83 %
11.02.2016 09:14 2,7 C 3,3 C 2,2 C 96 % 15 lf 1004,1 hPa 0,0 l/m 2 min 0 min 113 W/m 14,6 km/h (3 Bft) 100,00 %
11.02.2016 09:16 2,7 C 3,3 C 2,2 C 96 % 15 lf 1004,2 hPa 0,0 l/m 2 min 0 min 102 W/m 14,6 km/h (3 Bft) 95,74 %
11.02.2016 09:18 2,7 C 3,3 C 2,2 C 97 % 15 lf 1004,1 hPa 0,0 l/m 2 min 0 min 117 W/m 18,8 km/h (3 Bft) 100,00 %
11.02.2016 09:20 2,7 C 3,3 C 2,2 C 97 % 15 lf 1004,2 hPa 0,0 l/m 2 min 0 min 101 W/m 23,0 km/h (4 Bft) 100,00 %
11.02.2016 09:22 2,8 C 3,9 C 2,2 C 97 % 15 lf 1004,2 hPa 0,0 l/m 2 min 0 min 105 W/m 20,9 km/h (4 Bft) 97,87 %
11.02.2016 09:24 2,8 C 3,9 C 2,2 C 97 % 15 lf 1004,2 hPa 0,0 l/m 2 min 0 min 102 W/m 20,9 km/h (4 Bft) 97,87 %
11.02.2016 09:26 2,8 C 3,9 C 2,2 C 97 % 15 lf 1004,2 hPa 0,0 l/m 2 min 0 min 112 W/m 16,7 km/h (3 Bft) 97,87 %
11.02.2016 09:28 2,9 C 3,9 C 2,2 C 97 % 15 lf 1004,2 hPa 0,0 l/m 2 min 0 min 124 W/m 20,9 km/h (4 Bft) 95,74 %
11.02.2016 09:30 2,9 C 4,4 C 2,2 C 97 % 15 lf 1004,2 hPa 0,0 l/m 2 min 0 min 149 W/m 16,7 km/h (3 Bft) 100,00 %
11.02.2016 09:32 2,9 C 4,4 C 2,2 C 97 % 15 lf 1004,2 hPa 0,0 l/m 2 min 0 min 149 W/m 16,7 km/h (3 Bft) 95,65 %
11.02.2016 09:34 2,9 C 4,4 C 2,2 C 97 % 15 lf 1004,2 hPa 0,0 l/m 2 min 0 min 161 W/m 25,1 km/h (4 Bft) 93,62 %
11.02.2016 09:36 2,9 C 4,4 C 2,2 C 97 % 15 lf 1004,2 hPa 0,0 l/m 2 min 0 min 152 W/m 25,1 km/h (4 Bft) 97,87 %
11.02.2016 09:38 3,0 C 4,4 C 2,2 C 97 % 15 lf 1004,1 hPa 0,0 l/m 0 min 0 min 99 W/m 20,9 km/h (4 Bft) 100,00 %
11.02.2016 09:40 3,0 C 5,0 C 2,2 C 97 % 15 lf 1004,2 hPa 0,0 l/m 0 min 0 min 96 W/m 18,8 km/h (3 Bft) 97,87 %
11.02.2016 09:42 3,0 C 5,6 C 2,2 C 97 % 14 lf 1004,2 hPa 0,0 l/m 2 min 0 min 131 W/m 12,6 km/h (3 Bft) 97,87 %
11.02.2016 09:44 3,1 C 5,6 C 2,2 C 97 % 15 lf 1004,2 hPa 0,0 l/m 0 min 0 min 110 W/m 16,7 km/h (3 Bft) 97,14 %
11.02.2016 09:46 3,1 C 6,1 C 2,2 C 97 % 14 lf 1004,2 hPa 0,0 l/m 2 min 0 min 132 W/m 16,7 km/h (3 Bft) 98,04 %
11.02.2016 09:48 3,1 C 7,2 C 2,2 C 97 % 14 lf 1004,2 hPa 0,0 l/m 2 min 0 min 163 W/m 16,7 km/h (3 Bft) 97,87 %
11.02.2016 09:50 3,1 C 7,2 C 2,2 C 97 % 14 lf 1004,2 hPa 0,0 l/m 2 min 0 min 167 W/m 14,6 km/h (3 Bft) 97,87 %
11.02.2016 09:52 3,1 C 7,8 C 2,2 C 97 % 13 lf 1004,2 hPa 0,0 l/m 2 min 0 min 173 W/m 10,5 km/h (2 Bft) 93,62 %
11.02.2016 09:54 3,2 C 7,2 C 2,8 C 97 % 13 lf 1004,3 hPa 0,0 l/m 2 min 0 min 182 W/m 14,6 km/h (3 Bft) 97,87 %
11.02.2016 09:56 3,2 C 7,8 C 2,8 C 97 % 13 lf 1004,3 hPa 0,0 l/m 2 min 0 min 199 W/m 16,7 km/h (3 Bft) 93,62 %
11.02.2016 09:58 3,3 C 8,3 C 2,8 C 97 % 12 lf 1004,3 hPa 0,0 l/m 2 min 0 min 227 W/m 14,6 km/h (3 Bft) 95,65 %
11.02.2016 10:00 3,3 C 8,3 C 2,8 C 97 % 11 lf 1004,3 hPa 0,0 l/m 2 min 0 min 224 W/m 12,6 km/h (3 Bft) 97,87 %
11.02.2016 10:02 3,4 C 10,0 C 3,3 C 97 % 10 lf 1004,3 hPa 0,0 l/m 2 min 0 min 238 W/m 12,6 km/h (3 Bft) 97,87 %
11.02.2016 10:04 3,4 C 9,4 C 3,9 C 97 % 9 lf 1004,3 hPa 0,0 l/m 2 min 0 min 242 W/m 20,9 km/h (4 Bft) 95,74 %
11.02.2016 10:06 3,5 C 10,6 C 3,9 C 97 % 7 lf 1004,3 hPa 0,0 l/m 2 min 0 min 247 W/m 14,6 km/h (3 Bft) 95,74 %
11.02.2016 10:08 3,6 C 10,6 C 3,9 C 97 % 6 lf 1004,3 hPa 0,0 l/m 2 min 0 min 244 W/m 20,9 km/h (4 Bft) 93,62 %
11.02.2016 10:10 3,7 C 11,1 C 3,9 C 97 % 6 lf 1004,3 hPa 0,0 l/m 2 min 0 min 264 W/m 18,8 km/h (3 Bft) 91,30 %
11.02.2016 10:12 3,7 C 10,6 C 3,3 C 97 % 4 lf 1004,3 hPa 0,0 l/m 2 min 0 min 259 W/m 20,9 km/h (4 Bft) 97,87 %
11.02.2016 10:14 3,8 C 10,0 C 3,3 C 97 % 4 lf 1004,3 hPa 0,0 l/m 2 min 0 min 267 W/m 23,0 km/h (4 Bft) 91,49 %
11.02.2016 10:16 3,8 C 11,1 C 3,9 C 97 % 3 lf 1004,3 hPa 0,0 l/m 2 min 0 min 269 W/m 16,7 km/h (3 Bft) 95,74 %
11.02.2016 10:18 3,9 C 10,6 C 3,3 C 97 % 3 lf 1004,3 hPa 0,0 l/m 2 min 0 min 244 W/m 25,1 km/h (4 Bft) 93,62 %
11.02.2016 10:20 3,9 C 11,1 C 3,3 C 97 % 2 lf 1004,3 hPa 0,0 l/m 2 min 0 min 277 W/m 20,9 km/h (4 Bft) 93,62 %
11.02.2016 10:22 3,9 C 10,6 C 3,3 C 97 % 2 lf 1004,4 hPa 0,0 l/m 2 min 0 min 267 W/m 25,1 km/h (4 Bft) 93,48 %
11.02.2016 10:24 4,0 C 10,6 C 3,3 C 97 % 1 lf 1004,4 hPa 0,0 l/m 2 min 0 min 245 W/m 18,8 km/h (3 Bft) 91,49 %
11.02.2016 10:26 4,1 C 10,0 C 3,3 C 97 % 1 lf 1004,4 hPa 0,0 l/m 2 min 0 min 185 W/m 16,7 km/h (3 Bft) 93,62 %
11.02.2016 10:28 4,1 C 10,0 C 3,3 C 97 % 0 lf 1004,4 hPa 0,0 l/m 2 min 0 min 252 W/m 23,0 km/h (4 Bft) 93,62 %
11.02.2016 10:30 4,1 C 10,0 C 3,3 C 97 % 0 lf 1004,4 hPa 0,0 l/m 2 min 0 min 281 W/m 25,1 km/h (4 Bft) 87,23 %
11.02.2016 10:32 4,2 C 10,0 C 3,3 C 97 % 0 lf 1004,4 hPa 0,0 l/m 2 min 0 min 251 W/m 20,9 km/h (4 Bft) 91,49 %
11.02.2016 10:34 4,2 C 10,6 C 3,9 C 97 % 0 lf 1004,5 hPa 0,0 l/m 2 min 0 min 261 W/m 14,6 km/h (3 Bft) 93,48 %
11.02.2016 10:36 4,2 C 11,1 C 3,9 C 97 % 0 lf 1004,5 hPa 0,0 l/m 2 min 0 min 223 W/m 14,6 km/h (3 Bft) 93,62 %
11.02.2016 10:38 4,3 C 10,6 C 3,9 C 97 % 0 lf 1004,4 hPa 0,0 l/m 2 min 0 min 240 W/m 14,6 km/h (3 Bft) 91,49 %
11.02.2016 10:40 4,3 C 11,7 C 3,9 C 97 % 0 lf 1004,4 hPa 0,0 l/m 2 min 0 min 240 W/m 14,6 km/h (3 Bft) 89,36 %
11.02.2016 10:42 4,4 C 10,6 C 3,9 C 97 % 0 lf 1004,5 hPa 0,0 l/m 2 min 0 min 237 W/m 25,1 km/h (4 Bft) 89,36 %
11.02.2016 10:44 4,4 C 10,0 C 3,9 C 97 % 0 lf 1004,5 hPa 0,0 l/m 2 min 0 min 250 W/m 18,8 km/h (3 Bft) 93,62 %
11.02.2016 10:46 4,5 C 10,6 C 4,4 C 97 % 0 lf 1004,5 hPa 0,0 l/m 2 min 0 min 309 W/m 23,0 km/h (4 Bft) 89,13 %
11.02.2016 10:48 4,6 C 9,4 C 3,9 C 96 % 0 lf 1004,5 hPa 0,0 l/m 2 min 0 min 206 W/m 25,1 km/h (4 Bft) 91,49 %
11.02.2016 10:50 4,6 C 8,9 C 3,9 C 96 % 0 lf 1004,5 hPa 0,0 l/m 0 min 0 min 150 W/m 25,1 km/h (4 Bft) 93,62 %
11.02.2016 10:52 4,6 C 7,8 C 3,9 C 96 % 0 lf 1004,5 hPa 0,0 l/m 0 min 0 min 132 W/m 25,1 km/h (4 Bft) 93,62 %
11.02.2016 10:54 4,6 C 7,2 C 3,9 C 96 % 0 lf 1004,5 hPa 0,0 l/m 0 min 0 min 107 W/m 27,2 km/h (4 Bft) 94,44 %
11.02.2016 10:56 4,6 C 6,7 C 3,9 C 96 % 0 lf 1004,5 hPa 0,0 l/m 0 min 0 min 96 W/m 23,0 km/h (4 Bft) 89,13 %
11.02.2016 10:58 4,6 C 6,1 C 3,3 C 96 % 0 lf 1004,5 hPa 0,0 l/m 0 min 0 min 92 W/m 20,9 km/h (4 Bft) 93,62 %
11.02.2016 11:00 4,6 C 6,7 C 3,3 C 96 % 0 lf 1004,6 hPa 0,0 l/m 0 min 0 min 113 W/m 25,1 km/h (4 Bft) 91,43 %
11.02.2016 11:02 4,5 C 7,2 C 3,3 C 95 % 0 lf 1004,6 hPa 0,0 l/m 0 min 0 min 150 W/m 23,0 km/h (4 Bft) 92,31 %
11.02.2016 11:04 4,5 C 7,8 C 3,3 C 95 % 0 lf 1004,6 hPa 0,0 l/m 2 min 0 min 228 W/m 27,2 km/h (4 Bft) 92,11 %
11.02.2016 11:06 4,5 C 8,9 C 3,9 C 95 % 0 lf 1004,6 hPa 0,0 l/m 2 min 0 min 205 W/m 16,7 km/h (3 Bft) 94,34 %
11.02.2016 11:08 4,5 C 8,9 C 3,9 C 95 % 0 lf 1004,6 hPa 0,0 l/m 2 min 0 min 203 W/m 25,1 km/h (4 Bft) 97,96 %
11.02.2016 11:10 4,6 C 8,9 C 3,9 C 95 % 0 lf 1004,7 hPa 0,0 l/m 2 min 0 min 250 W/m 23,0 km/h (4 Bft) 97,87 %
11.02.2016 11:12 4,6 C 8,9 C 4,4 C 95 % 0 lf 1004,6 hPa 0,0 l/m 2 min 0 min 265 W/m 25,1 km/h (4 Bft) 95,74 %
11.02.2016 11:14 4,6 C 9,4 C 4,4 C 95 % 0 lf 1004,7 hPa 0,0 l/m 2 min 0 min 261 W/m 23,0 km/h (4 Bft) 93,62 %
11.02.2016 11:16 4,7 C 8,3 C 4,4 C 94 % 0 lf 1004,7 hPa 0,0 l/m 2 min 0 min 217 W/m 23,0 km/h (4 Bft) 96,00 %
11.02.2016 11:18 4,7 C 7,8 C 4,4 C 94 % 0 lf 1004,7 hPa 0,0 l/m 0 min 0 min 176 W/m 27,2 km/h (4 Bft) 97,87 %
11.02.2016 11:20 4,7 C 7,8 C 4,4 C 94 % 0 lf 1004,7 hPa 0,0 l/m 0 min 0 min 154 W/m 20,9 km/h (4 Bft) 95,65 %
11.02.2016 11:22 4,7 C 7,2 C 3,9 C 94 % 0 lf 1004,7 hPa 0,0 l/m 0 min 0 min 145 W/m 23,0 km/h (4 Bft) 97,87 %
11.02.2016 11:24 4,8 C 7,8 C 4,4 C 94 % 0 lf 1004,7 hPa 0,0 l/m 0 min 0 min 164 W/m 23,0 km/h (4 Bft) 100,00 %
11.02.2016 11:26 4,8 C 10,0 C 4,4 C 93 % 0 lf 1004,8 hPa 0,0 l/m 2 min 0 min 308 W/m 16,7 km/h (3 Bft) 100,00 %
11.02.2016 11:28 4,8 C 11,1 C 4,4 C 93 % 0 lf 1004,8 hPa 0,0 l/m 2 min 0 min 397 W/m 18,8 km/h (3 Bft) 97,87 %
11.02.2016 11:30 4,9 C 12,2 C 4,4 C 93 % 0 lf 1004,8 hPa 0,0 l/m 2 min 0 min 366 W/m 18,8 km/h (3 Bft) 100,00 %
11.02.2016 11:32 5,0 C 12,8 C 4,4 C 93 % 0 lf 1004,8 hPa 0,0 l/m 2 min 0 min 357 W/m 23,0 km/h (4 Bft) 97,83 %
11.02.2016 11:34 5,1 C 13,3 C 4,4 C 93 % 0 lf 1004,7 hPa 0,0 l/m 2 min 0 min 379 W/m 23,0 km/h (4 Bft) 100,00 %
11.02.2016 11:36 5,2 C 13,3 C 5,0 C 93 % 0 lf 1004,8 hPa 0,0 l/m 2 min 0 min 369 W/m 20,9 km/h (4 Bft) 100,00 %
11.02.2016 11:38 5,3 C 12,2 C 4,4 C 93 % 0 lf 1004,7 hPa 0,0 l/m 2 min 0 min 394 W/m 20,9 km/h (4 Bft) 100,00 %
11.02.2016 11:40 5,4 C 12,8 C 5,0 C 93 % 0 lf 1004,8 hPa 0,0 l/m 2 min 0 min 397 W/m 20,9 km/h (4 Bft) 100,00 %
11.02.2016 11:42 5,4 C 13,9 C 5,0 C 93 % 0 lf 1004,7 hPa 0,0 l/m 2 min 0 min 391 W/m 20,9 km/h (4 Bft) 97,83 %
11.02.2016 11:44 5,6 C 13,9 C 5,6 C 93 % 0 lf 1004,7 hPa 0,0 l/m 2 min 0 min 403 W/m 18,8 km/h (3 Bft) 100,00 %
11.02.2016 11:46 5,7 C 12,8 C 5,6 C 92 % 0 lf 1004,7 hPa 0,0 l/m 2 min 0 min 198 W/m 25,1 km/h (4 Bft) 100,00 %
11.02.2016 11:48 5,7 C 12,8 C 5,6 C 92 % 0 lf 1004,7 hPa 0,0 l/m 0 min 0 min 125 W/m 16,7 km/h (3 Bft) 98,11 %
11.02.2016 11:50 5,8 C 13,9 C 6,1 C 92 % 0 lf 1004,7 hPa 0,0 l/m 2 min 0 min 403 W/m 16,7 km/h (3 Bft) 97,87 %
11.02.2016 11:52 5,9 C 14,4 C 6,1 C 91 % 0 lf 1004,7 hPa 0,0 l/m 2 min 0 min 440 W/m 23,0 km/h (4 Bft) 100,00 %
11.02.2016 11:54 5,9 C 14,4 C 6,7 C 91 % 0 lf 1004,7 hPa 0,0 l/m 2 min 0 min 443 W/m 20,9 km/h (4 Bft) 100,00 %
11.02.2016 11:56 6,1 C 14,4 C 7,2 C 91 % 0 lf 1004,7 hPa 0,0 l/m 2 min 0 min 467 W/m 25,1 km/h (4 Bft) 100,00 %
11.02.2016 11:58 6,2 C 15,0 C 7,8 C 90 % 0 lf 1004,7 hPa 0,0 l/m 2 min 0 min 466 W/m 20,9 km/h (4 Bft) 96,00 %
11.02.2016 12:00 6,3 C 15,0 C 7,8 C 90 % 0 lf 1004,7 hPa 0,0 l/m 2 min 0 min 450 W/m 23,0 km/h (4 Bft) 97,87 %
11.02.2016 12:02 6,4 C 13,3 C 7,2 C 90 % 0 lf 1004,8 hPa 0,0 l/m 2 min 0 min 309 W/m 27,2 km/h (4 Bft) 97,87 %
11.02.2016 12:04 6,4 C 13,9 C 6,7 C 89 % 0 lf 1004,7 hPa 0,0 l/m 2 min 0 min 271 W/m 18,8 km/h (3 Bft) 97,73 %
11.02.2016 12:06 6,5 C 13,3 C 6,7 C 89 % 0 lf 1004,7 hPa 0,0 l/m 2 min 0 min 383 W/m 18,8 km/h (3 Bft) 100,00 %
11.02.2016 12:08 6,6 C 11,7 C 6,1 C 88 % 0 lf 1004,7 hPa 0,0 l/m 0 min 0 min 135 W/m 23,0 km/h (4 Bft) 95,65 %
11.02.2016 12:10 6,6 C 10,6 C 5,6 C 88 % 0 lf 1004,7 hPa 0,0 l/m 0 min 0 min 135 W/m 31,4 km/h (5 Bft) 97,87 %
11.02.2016 12:12 6,4 C 8,3 C 5,0 C 86 % 0 lf 1004,7 hPa 0,0 l/m 0 min 0 min 112 W/m 29,3 km/h (5 Bft) 100,00 %
11.02.2016 12:14 6,4 C 7,8 C 5,0 C 86 % 0 lf 1004,7 hPa 0,0 l/m 0 min 0 min 129 W/m 27,2 km/h (4 Bft) 100,00 %
11.02.2016 12:16 6,3 C 7,2 C 5,0 C 85 % 0 lf 1004,7 hPa 0,0 l/m 0 min 0 min 129 W/m 29,3 km/h (5 Bft) 100,00 %
11.02.2016 12:18 6,2 C 9,4 C 5,0 C 85 % 0 lf 1004,7 hPa 0,0 l/m 2 min 0 min 239 W/m 25,1 km/h (4 Bft) 97,83 %
11.02.2016 12:20 6,2 C 10,6 C 5,0 C 85 % 0 lf 1004,6 hPa 0,0 l/m 2 min 0 min 338 W/m 25,1 km/h (4 Bft) 93,62 %
11.02.2016 12:22 6,2 C 11,7 C 5,0 C 85 % 0 lf 1004,6 hPa 0,0 l/m 2 min 0 min 356 W/m 25,1 km/h (4 Bft) 97,96 %
11.02.2016 12:24 6,2 C 12,2 C 5,0 C 85 % 0 lf 1004,6 hPa 0,0 l/m 2 min 0 min 360 W/m 25,1 km/h (4 Bft) 97,87 %
11.02.2016 12:26 6,2 C 12,2 C 5,6 C 85 % 0 lf 1004,6 hPa 0,0 l/m 2 min 0 min 381 W/m 27,2 km/h (4 Bft) 97,87 %
11.02.2016 12:28 6,3 C 13,3 C 5,6 C 85 % 0 lf 1004,6 hPa 0,0 l/m 2 min 0 min 385 W/m 14,6 km/h (3 Bft) 97,87 %
11.02.2016 12:30 6,3 C 13,3 C 5,6 C 85 % 0 lf 1004,6 hPa 0,0 l/m 2 min 0 min 404 W/m 23,0 km/h (4 Bft) 100,00 %
11.02.2016 12:32 6,4 C 10,6 C 5,6 C 85 % 0 lf 1004,5 hPa 0,0 l/m 2 min 0 min 251 W/m 20,9 km/h (4 Bft) 97,83 %
11.02.2016 12:34 6,4 C 10,6 C 5,6 C 85 % 0 lf 1004,5 hPa 0,0 l/m 0 min 0 min 164 W/m 31,4 km/h (5 Bft) 97,87 %
11.02.2016 12:36 6,4 C 9,4 C 5,6 C 85 % 0 lf 1004,5 hPa 0,0 l/m 0 min 0 min 162 W/m 25,1 km/h (4 Bft) 95,74 %
11.02.2016 12:38 6,4 C 8,3 C 5,0 C 84 % 0 lf 1004,5 hPa 0,0 l/m 0 min 0 min 141 W/m 25,1 km/h (4 Bft) 91,49 %
11.02.2016 12:40 6,3 C 7,8 C 5,0 C 84 % 0 lf 1004,4 hPa 0,0 l/m 0 min 0 min 126 W/m 23,0 km/h (4 Bft) 97,87 %
11.02.2016 12:42 6,3 C 7,2 C 5,0 C 84 % 0 lf 1004,4 hPa 0,0 l/m 0 min 0 min 129 W/m 27,2 km/h (4 Bft) 93,48 %
11.02.2016 12:44 6,3 C 7,2 C 5,0 C 83 % 0 lf 1004,4 hPa 0,0 l/m 0 min 0 min 136 W/m 25,1 km/h (4 Bft) 97,87 %
11.02.2016 12:46 6,2 C 7,2 C 5,0 C 83 % 0 lf 1004,4 hPa 0,0 l/m 0 min 0 min 148 W/m 20,9 km/h (4 Bft) 93,62 %
11.02.2016 12:48 6,2 C 7,8 C 5,0 C 83 % 0 lf 1004,4 hPa 0,0 l/m 0 min 0 min 170 W/m 29,3 km/h (5 Bft) 97,92 %
11.02.2016 12:50 6,2 C 8,9 C 5,0 C 83 % 0 lf 1004,4 hPa 0,0 l/m 0 min 0 min 174 W/m 27,2 km/h (4 Bft) 95,74 %
11.02.2016 12:52 6,2 C 11,1 C 5,6 C 84 % 0 lf 1004,4 hPa 0,0 l/m 2 min 0 min 295 W/m 25,1 km/h (4 Bft) 95,65 %
11.02.2016 12:54 6,2 C 11,7 C 5,6 C 84 % 0 lf 1004,4 hPa 0,0 l/m 2 min 0 min 437 W/m 27,2 km/h (4 Bft) 97,87 %
11.02.2016 12:56 6,3 C 12,2 C 5,6 C 84 % 0 lf 1004,4 hPa 0,0 l/m 2 min 0 min 418 W/m 25,1 km/h (4 Bft) 95,74 %
11.02.2016 12:58 6,3 C 12,2 C 6,1 C 84 % 0 lf 1004,4 hPa 0,0 l/m 2 min 0 min 388 W/m 23,0 km/h (4 Bft) 97,87 %
11.02.2016 13:00 6,4 C 12,8 C 6,1 C 84 % 0 lf 1004,4 hPa 0,0 l/m 2 min 0 min 428 W/m 29,3 km/h (5 Bft) 97,87 %
11.02.2016 13:02 6,6 C 14,4 C 6,7 C 84 % 0 lf 1004,3 hPa 0,0 l/m 2 min 0 min 520 W/m 29,3 km/h (5 Bft) 93,62 %
11.02.2016 13:04 6,7 C 13,3 C 6,1 C 84 % 0 lf 1004,3 hPa 0,0 l/m 2 min 0 min 479 W/m 35,6 km/h (5 Bft) 93,62 %
11.02.2016 13:06 6,7 C 11,7 C 6,1 C 83 % 0 lf 1004,3 hPa 0,0 l/m 0 min 0 min 146 W/m 25,1 km/h (4 Bft) 93,48 %
11.02.2016 13:08 6,7 C 10,0 C 5,6 C 83 % 0 lf 1004,3 hPa 0,0 l/m 0 min 0 min 152 W/m 23,0 km/h (4 Bft) 93,62 %
11.02.2016 13:10 6,7 C 8,9 C 5,6 C 82 % 0 lf 1004,3 hPa 0,0 l/m 0 min 0 min 142 W/m 29,3 km/h (5 Bft) 93,62 %
11.02.2016 13:12 6,6 C 8,9 C 5,6 C 81 % 0 lf 1004,3 hPa 0,0 l/m 0 min 0 min 141 W/m 16,7 km/h (3 Bft) 95,74 %
11.02.2016 13:14 6,6 C 8,3 C 5,0 C 81 % 0 lf 1004,3 hPa 0,0 l/m 0 min 0 min 130 W/m 25,1 km/h (4 Bft) 91,49 %
11.02.2016 13:16 6,6 C 8,3 C 5,0 C 81 % 0 lf 1004,3 hPa 0,0 l/m 0 min 0 min 148 W/m 25,1 km/h (4 Bft) 93,48 %
11.02.2016 13:18 6,6 C 7,8 C 5,0 C 81 % 0 lf 1004,3 hPa 0,0 l/m 0 min 0 min 129 W/m 18,8 km/h (3 Bft) 95,74 %
11.02.2016 13:20 6,5 C 8,9 C 5,0 C 81 % 0 lf 1004,4 hPa 0,0 l/m 0 min 0 min 136 W/m 25,1 km/h (4 Bft) 91,49 %
11.02.2016 13:22 6,4 C 9,4 C 5,0 C 81 % 0 lf 1004,3 hPa 0,0 l/m 2 min 0 min 249 W/m 31,4 km/h (5 Bft) 91,49 %
11.02.2016 13:24 6,5 C 10,0 C 5,6 C 81 % 0 lf 1004,3 hPa 0,0 l/m 2 min 0 min 268 W/m 25,1 km/h (4 Bft) 93,62 %
11.02.2016 13:26 6,5 C 9,4 C 5,6 C 81 % 0 lf 1004,3 hPa 0,0 l/m 2 min 0 min 315 W/m 25,1 km/h (4 Bft) 93,62 %
11.02.2016 13:28 6,5 C 10,0 C 5,6 C 81 % 0 lf 1004,2 hPa 0,0 l/m 0 min 0 min 168 W/m 20,9 km/h (4 Bft) 95,65 %
11.02.2016 13:30 6,5 C 10,0 C 5,6 C 82 % 0 lf 1004,3 hPa 0,0 l/m 2 min 0 min 223 W/m 16,7 km/h (3 Bft) 93,62 %
11.02.2016 13:32 6,5 C 9,4 C 5,6 C 82 % 0 lf 1004,3 hPa 0,0 l/m 2 min 0 min 240 W/m 18,8 km/h (3 Bft) 91,49 %
11.02.2016 13:34 6,5 C 8,3 C 5,0 C 81 % 0 lf 1004,3 hPa 0,0 l/m 0 min 0 min 189 W/m 18,8 km/h (3 Bft) 93,62 %
11.02.2016 13:36 6,5 C 8,9 C 5,0 C 81 % 0 lf 1004,2 hPa 0,0 l/m 2 min 0 min 237 W/m 23,0 km/h (4 Bft) 91,43 %
11.02.2016 13:38 6,5 C 8,9 C 5,0 C 81 % 0 lf 1004,3 hPa 0,0 l/m 2 min 0 min 237 W/m 25,1 km/h (4 Bft) 94,92 %
11.02.2016 13:40 6,5 C 10,6 C 5,6 C 81 % 0 lf 1004,2 hPa 0,0 l/m 2 min 0 min 255 W/m 16,7 km/h (3 Bft) 91,30 %
11.02.2016 13:42 6,5 C 10,6 C 5,6 C 81 % 0 lf 1004,2 hPa 0,0 l/m 2 min 0 min 320 W/m 23,0 km/h (4 Bft) 93,62 %
11.02.2016 13:44 6,6 C 11,1 C 5,6 C 82 % 0 lf 1004,3 hPa 0,0 l/m 2 min 0 min 352 W/m 27,2 km/h (4 Bft) 95,74 %
11.02.2016 13:46 6,6 C 11,1 C 5,6 C 81 % 0 lf 1004,2 hPa 0,0 l/m 2 min 0 min 333 W/m 16,7 km/h (3 Bft) 95,74 %
11.02.2016 13:48 6,6 C 10,0 C 5,6 C 81 % 0 lf 1004,3 hPa 0,0 l/m 0 min 0 min 184 W/m 25,1 km/h (4 Bft) 91,49 %
11.02.2016 13:50 6,7 C 10,0 C 5,6 C 81 % 0 lf 1004,2 hPa 0,0 l/m 0 min 0 min 177 W/m 18,8 km/h (3 Bft) 93,62 %
11.02.2016 13:52 6,7 C 8,9 C 5,6 C 81 % 0 lf 1004,2 hPa 0,0 l/m 0 min 0 min 171 W/m 20,9 km/h (4 Bft) 93,48 %
11.02.2016 13:54 6,7 C 10,0 C 5,6 C 81 % 0 lf 1004,2 hPa 0,0 l/m 2 min 0 min 247 W/m 20,9 km/h (4 Bft) 95,74 %
11.02.2016 13:56 6,7 C 10,0 C 5,6 C 81 % 0 lf 1004,2 hPa 0,0 l/m 2 min 0 min 286 W/m 25,1 km/h (4 Bft) 91,49 %
11.02.2016 13:58 6,7 C 10,6 C 5,6 C 81 % 0 lf 1004,1 hPa 0,0 l/m 2 min 0 min 306 W/m 20,9 km/h (4 Bft) 97,14 %
11.02.2016 14:00 6,7 C 11,1 C 5,6 C 81 % 0 lf 1004,1 hPa 0,0 l/m 2 min 0 min 314 W/m 23,0 km/h (4 Bft) 95,74 %
11.02.2016 14:02 6,7 C 11,1 C 5,6 C 81 % 0 lf 1004,1 hPa 0,0 l/m 2 min 0 min 309 W/m 25,1 km/h (4 Bft) 86,00 %
11.02.2016 14:04 6,8 C 10,6 C 5,6 C 81 % 0 lf 1004,1 hPa 0,0 l/m 2 min 0 min 268 W/m 20,9 km/h (4 Bft) 91,49 %
11.02.2016 14:06 6,8 C 9,4 C 5,6 C 81 % 0 lf 1004,1 hPa 0,0 l/m 0 min 0 min 152 W/m 23,0 km/h (4 Bft) 91,30 %
11.02.2016 14:08 6,7 C 8,9 C 5,6 C 81 % 0 lf 1004,2 hPa 0,0 l/m 0 min 0 min 142 W/m 27,2 km/h (4 Bft) 95,74 %
11.02.2016 14:10 6,7 C 8,3 C 5,6 C 81 % 0 lf 1004,1 hPa 0,0 l/m 0 min 0 min 139 W/m 18,8 km/h (3 Bft) 95,74 %
11.02.2016 14:12 6,7 C 8,3 C 5,6 C 81 % 0 lf 1004,1 hPa 0,0 l/m 0 min 0 min 144 W/m 18,8 km/h (3 Bft) 98,28 %
11.02.2016 14:14 6,7 C 8,3 C 5,6 C 81 % 0 lf 1004,1 hPa 0,0 l/m 0 min 0 min 148 W/m 14,6 km/h (3 Bft) 97,22 %
11.02.2016 14:16 6,7 C 8,3 C 5,6 C 81 % 0 lf 1004,1 hPa 0,0 l/m 0 min 0 min 147 W/m 16,7 km/h (3 Bft) 97,87 %
11.02.2016 14:18 6,7 C 7,8 C 5,6 C 81 % 0 lf 1004,1 hPa 0,0 l/m 0 min 0 min 130 W/m 23,0 km/h (4 Bft) 93,48 %
11.02.2016 14:20 6,7 C 7,8 C 5,6 C 81 % 0 lf 1004,1 hPa 0,0 l/m 0 min 0 min 114 W/m 25,1 km/h (4 Bft) 97,87 %
11.02.2016 14:22 6,6 C 8,3 C 5,6 C 81 % 0 lf 1004,0 hPa 0,0 l/m 0 min 0 min 140 W/m 23,0 km/h (4 Bft) 97,87 %
11.02.2016 14:24 6,6 C 9,4 C 5,6 C 81 % 0 lf 1004,1 hPa 0,0 l/m 2 min 0 min 221 W/m 14,6 km/h (3 Bft) 100,00 %
11.02.2016 14:26 6,7 C 10,0 C 5,6 C 81 % 0 lf 1004,0 hPa 0,0 l/m 2 min 0 min 220 W/m 14,6 km/h (3 Bft) 100,00 %
11.02.2016 14:28 6,7 C 10,0 C 6,1 C 82 % 0 lf 1004,0 hPa 0,0 l/m 2 min 0 min 250 W/m 18,8 km/h (3 Bft) 97,83 %
11.02.2016 14:30 6,7 C 10,0 C 6,1 C 82 % 0 lf 1004,0 hPa 0,0 l/m 2 min 0 min 216 W/m 27,2 km/h (4 Bft) 95,74 %
11.02.2016 14:32 6,7 C 10,6 C 6,1 C 81 % 0 lf 1004,1 hPa 0,0 l/m 2 min 0 min 239 W/m 16,7 km/h (3 Bft) 100,00 %
11.02.2016 14:34 6,8 C 10,0 C 6,1 C 81 % 0 lf 1004,1 hPa 0,0 l/m 2 min 0 min 259 W/m 20,9 km/h (4 Bft) 97,87 %
11.02.2016 14:36 6,8 C 10,0 C 6,1 C 81 % 0 lf 1004,1 hPa 0,0 l/m 2 min 0 min 221 W/m 20,9 km/h (4 Bft) 95,74 %
11.02.2016 14:38 6,8 C 10,0 C 6,1 C 81 % 0 lf 1004,1 hPa 0,0 l/m 2 min 0 min 251 W/m 16,7 km/h (3 Bft) 100,00 %
11.02.2016 14:40 6,8 C 11,1 C 6,1 C 81 % 0 lf 1004,1 hPa 0,0 l/m 2 min 0 min 246 W/m 18,8 km/h (3 Bft) 100,00 %
11.02.2016 14:42 6,9 C 10,6 C 6,1 C 80 % 0 lf 1004,1 hPa 0,0 l/m 2 min 0 min 228 W/m 18,8 km/h (3 Bft) 97,87 %
11.02.2016 14:44 6,9 C 10,6 C 6,1 C 80 % 0 lf 1004,0 hPa 0,0 l/m 2 min 0 min 182 W/m 14,6 km/h (3 Bft) 98,00 %
11.02.2016 14:46 6,9 C 10,0 C 6,1 C 80 % 0 lf 1004,1 hPa 0,0 l/m 2 min 0 min 181 W/m 16,7 km/h (3 Bft) 100,00 %
11.02.2016 14:48 6,9 C 9,4 C 5,6 C 80 % 0 lf 1004,1 hPa 0,0 l/m 0 min 0 min 150 W/m 14,6 km/h (3 Bft) 100,00 %
11.02.2016 14:50 6,9 C 8,9 C 5,6 C 80 % 0 lf 1004,1 hPa 0,0 l/m 0 min 0 min 132 W/m 14,6 km/h (3 Bft) 100,00 %
11.02.2016 14:52 6,9 C 8,9 C 5,6 C 80 % 0 lf 1004,1 hPa 0,0 l/m 0 min 0 min 141 W/m 18,8 km/h (3 Bft) 100,00 %
11.02.2016 14:54 6,9 C 8,3 C 5,6 C 79 % 0 lf 1004,1 hPa 0,0 l/m 0 min 0 min 130 W/m 16,7 km/h (3 Bft) 100,00 %
11.02.2016 14:56 6,9 C 8,3 C 5,6 C 79 % 0 lf 1004,1 hPa 0,0 l/m 0 min 0 min 124 W/m 12,6 km/h (3 Bft) 97,87 %
11.02.2016 14:58 6,8 C 7,8 C 5,6 C 79 % 0 lf 1004,1 hPa 0,0 l/m 0 min 0 min 130 W/m 18,8 km/h (3 Bft) 95,74 %
11.02.2016 15:00 6,8 C 7,8 C 5,6 C 79 % 0 lf 1004,1 hPa 0,0 l/m 0 min 0 min 134 W/m 23,0 km/h (4 Bft) 100,00 %
11.02.2016 15:02 6,8 C 7,8 C 5,6 C 79 % 0 lf 1004,1 hPa 0,0 l/m 0 min 0 min 137 W/m 16,7 km/h (3 Bft) 100,00 %
11.02.2016 15:04 6,8 C 7,8 C 5,6 C 79 % 0 lf 1004,1 hPa 0,0 l/m 0 min 0 min 137 W/m 16,7 km/h (3 Bft) 100,00 %
11.02.2016 15:06 6,8 C 8,3 C 5,6 C 79 % 0 lf 1004,1 hPa 0,0 l/m 0 min 0 min 150 W/m 18,8 km/h (3 Bft) 100,00 %
11.02.2016 15:08 6,7 C 8,3 C 5,6 C 79 % 0 lf 1004,1 hPa 0,0 l/m 0 min 0 min 132 W/m 16,7 km/h (3 Bft) 100,00 %
11.02.2016 15:10 6,7 C 7,8 C 5,6 C 79 % 0 lf 1004,1 hPa 0,0 l/m 0 min 0 min 113 W/m 16,7 km/h (3 Bft) 97,87 %
11.02.2016 15:12 6,7 C 7,8 C 5,6 C 80 % 0 lf 1004,1 hPa 0,0 l/m 0 min 0 min 113 W/m 10,5 km/h (2 Bft) 96,36 %
11.02.2016 15:14 6,7 C 8,3 C 5,6 C 80 % 0 lf 1004,1 hPa 0,0 l/m 0 min 0 min 124 W/m 14,6 km/h (3 Bft) 100,00 %
11.02.2016 15:16 6,8 C 8,3 C 5,6 C 80 % 0 lf 1004,1 hPa 0,0 l/m 0 min 0 min 129 W/m 14,6 km/h (3 Bft) 97,87 %
11.02.2016 15:18 6,7 C 8,3 C 5,6 C 80 % 0 lf 1004,1 hPa 0,0 l/m 0 min 0 min 123 W/m 20,9 km/h (4 Bft) 97,87 %
11.02.2016 15:20 6,7 C 8,3 C 5,6 C 80 % 0 lf 1004,1 hPa 0,0 l/m 0 min 0 min 102 W/m 14,6 km/h (3 Bft) 98,00 %
11.02.2016 15:22 6,7 C 7,8 C 5,6 C 80 % 0 lf 1004,1 hPa 0,0 l/m 0 min 0 min 95 W/m 14,6 km/h (3 Bft) 100,00 %
11.02.2016 15:24 6,7 C 7,8 C 5,6 C 80 % 0 lf 1004,1 hPa 0,0 l/m 0 min 0 min 91 W/m 18,8 km/h (3 Bft) 100,00 %
11.02.2016 15:26 6,7 C 7,8 C 5,6 C 80 % 0 lf 1004,1 hPa 0,0 l/m 0 min 0 min 85 W/m 16,7 km/h (3 Bft) 91,49 %
11.02.2016 15:28 6,7 C 7,2 C 5,6 C 80 % 0 lf 1004,1 hPa 0,0 l/m 0 min 0 min 79 W/m 23,0 km/h (4 Bft) 89,36 %
11.02.2016 15:30 6,7 C 7,2 C 5,6 C 80 % 0 lf 1004,1 hPa 0,0 l/m 0 min 0 min 75 W/m 18,8 km/h (3 Bft) 97,87 %
11.02.2016 15:32 6,7 C 7,2 C 5,6 C 80 % 0 lf 1004,1 hPa 0,0 l/m 0 min 0 min 79 W/m 16,7 km/h (3 Bft) 97,87 %
11.02.2016 15:34 6,7 C 7,8 C 5,6 C 80 % 0 lf 1004,1 hPa 0,0 l/m 0 min 0 min 91 W/m 18,8 km/h (3 Bft) 97,87 %
11.02.2016 15:36 6,7 C 7,8 C 5,6 C 80 % 0 lf 1004,1 hPa 0,0 l/m 0 min 0 min 108 W/m 20,9 km/h (4 Bft) 95,74 %
11.02.2016 15:38 6,7 C 7,8 C 5,6 C 80 % 0 lf 1004,1 hPa 0,0 l/m 0 min 0 min 128 W/m 16,7 km/h (3 Bft) 97,87 %
11.02.2016 15:40 6,7 C 7,8 C 5,6 C 80 % 0 lf 1004,1 hPa 0,0 l/m 0 min 0 min 123 W/m 10,5 km/h (2 Bft) 94,29 %
11.02.2016 15:42 6,7 C 7,8 C 5,6 C 80 % 0 lf 1004,1 hPa 0,0 l/m 0 min 0 min 117 W/m 16,7 km/h (3 Bft) 96,55 %
11.02.2016 15:44 6,7 C 7,8 C 5,6 C 80 % 0 lf 1004,1 hPa 0,0 l/m 0 min 0 min 120 W/m 14,6 km/h (3 Bft) 97,87 %
11.02.2016 15:46 6,7 C 8,3 C 5,6 C 80 % 0 lf 1004,2 hPa 0,0 l/m 0 min 0 min 122 W/m 12,6 km/h (3 Bft) 93,62 %
11.02.2016 15:48 6,7 C 8,3 C 5,6 C 80 % 0 lf 1004,2 hPa 0,0 l/m 2 min 0 min 124 W/m 16,7 km/h (3 Bft) 97,83 %
11.02.2016 15:50 6,7 C 8,3 C 5,6 C 80 % 0 lf 1004,1 hPa 0,0 l/m 0 min 0 min 112 W/m 12,6 km/h (3 Bft) 93,62 %
11.02.2016 15:52 6,7 C 8,3 C 5,6 C 80 % 0 lf 1004,2 hPa 0,0 l/m 2 min 0 min 121 W/m 10,5 km/h (2 Bft) 95,74 %
11.02.2016 15:54 6,7 C 7,8 C 5,6 C 80 % 0 lf 1004,1 hPa 0,0 l/m 2 min 0 min 130 W/m 16,7 km/h (3 Bft) 95,74 %
11.02.2016 15:56 6,7 C 8,3 C 5,6 C 80 % 0 lf 1004,2 hPa 0,0 l/m 2 min 0 min 120 W/m 12,6 km/h (3 Bft) 91,49 %
11.02.2016 15:58 6,7 C 8,3 C 5,6 C 80 % 0 lf 1004,1 hPa 0,0 l/m 2 min 0 min 122 W/m 16,7 km/h (3 Bft) 93,62 %
11.02.2016 16:00 6,7 C 8,3 C 5,6 C 79 % 0 lf 1004,1 hPa 0,0 l/m 2 min 0 min 128 W/m 16,7 km/h (3 Bft) 94,44 %
11.02.2016 16:02 6,7 C 8,3 C 5,6 C 79 % 0 lf 1004,1 hPa 0,0 l/m 2 min 0 min 115 W/m 12,6 km/h (3 Bft) 97,83 %
11.02.2016 16:04 6,7 C 7,8 C 5,6 C 79 % 0 lf 1004,1 hPa 0,0 l/m 2 min 0 min 113 W/m 12,6 km/h (3 Bft) 97,87 %
11.02.2016 16:06 6,7 C 7,8 C 5,6 C 79 % 0 lf 1004,1 hPa 0,0 l/m 2 min 0 min 107 W/m 10,5 km/h (2 Bft) 96,36 %
11.02.2016 16:08 6,8 C 7,8 C 5,6 C 79 % 0 lf 1004,1 hPa 0,0 l/m 2 min 0 min 104 W/m 12,6 km/h (3 Bft) 94,00 %
11.02.2016 16:10 6,7 C 7,8 C 5,6 C 79 % 0 lf 1004,1 hPa 0,0 l/m 0 min 0 min 98 W/m 6,3 km/h (2 Bft) 97,87 %
11.02.2016 16:12 6,8 C 7,8 C 5,6 C 79 % 0 lf 1004,1 hPa 0,0 l/m 0 min 0 min 94 W/m 10,5 km/h (2 Bft) 97,83 %
11.02.2016 16:14 6,8 C 7,8 C 5,6 C 79 % 0 lf 1004,1 hPa 0,0 l/m 0 min 0 min 90 W/m 10,5 km/h (2 Bft) 97,87 %
11.02.2016 16:16 6,8 C 7,2 C 5,0 C 79 % 0 lf 1004,1 hPa 0,0 l/m 0 min 0 min 85 W/m 12,6 km/h (3 Bft) 95,74 %
11.02.2016 16:18 6,7 C 7,2 C 5,0 C 79 % 0 lf 1004,1 hPa 0,0 l/m 0 min 0 min 80 W/m 12,6 km/h (3 Bft) 97,87 %
11.02.2016 16:20 6,7 C 7,2 C 5,0 C 79 % 0 lf 1004,2 hPa 0,0 l/m 0 min 0 min 76 W/m 10,5 km/h (2 Bft) 97,87 %
11.02.2016 16:22 6,7 C 7,2 C 5,0 C 79 % 0 lf 1004,1 hPa 0,0 l/m 0 min 0 min 72 W/m 10,5 km/h (2 Bft) 95,65 %
11.02.2016 16:24 6,7 C 7,2 C 5,0 C 79 % 0 lf 1004,1 hPa 0,0 l/m 0 min 0 min 82 W/m 6,3 km/h (2 Bft) 91,89 %
11.02.2016 16:26 6,7 C 7,2 C 5,0 C 79 % 0 lf 1004,2 hPa 0,0 l/m 2 min 0 min 83 W/m 14,6 km/h (3 Bft) 89,13 %
11.02.2016 16:28 6,7 C 7,2 C 5,0 C 79 % 0 lf 1004,1 hPa 0,0 l/m 2 min 0 min 87 W/m 12,6 km/h (3 Bft) 93,62 %
11.02.2016 16:30 6,7 C 7,2 C 5,0 C 79 % 0 lf 1004,1 hPa 0,0 l/m 2 min 0 min 87 W/m 12,6 km/h (3 Bft) 89,36 %
11.02.2016 16:32 6,7 C 7,2 C 5,0 C 79 % 0 lf 1004,1 hPa 0,0 l/m 2 min 0 min 90 W/m 12,6 km/h (3 Bft) 95,74 %
11.02.2016 16:34 6,7 C 7,2 C 5,0 C 79 % 0 lf 1004,1 hPa 0,0 l/m 2 min 0 min 86 W/m 8,4 km/h (2 Bft) 93,62 %
11.02.2016 16:36 6,6 C 7,2 C 5,0 C 79 % 0 lf 1004,1 hPa 0,0 l/m 2 min 0 min 81 W/m 10,5 km/h (2 Bft) 91,49 %
11.02.2016 16:38 6,6 C 7,2 C 5,0 C 79 % 0 lf 1004,1 hPa 0,0 l/m 2 min 0 min 77 W/m 12,6 km/h (3 Bft) 93,48 %
11.02.2016 16:40 6,6 C 7,2 C 5,0 C 80 % 0 lf 1004,1 hPa 0,0 l/m 2 min 0 min 73 W/m 12,6 km/h (3 Bft) 89,36 %
11.02.2016 16:42 6,6 C 7,2 C 5,0 C 80 % 0 lf 1004,1 hPa 0,0 l/m 2 min 0 min 68 W/m 12,6 km/h (3 Bft) 95,74 %
11.02.2016 16:44 6,6 C 7,2 C 5,0 C 80 % 0 lf 1004,1 hPa 0,0 l/m 2 min 0 min 64 W/m 10,5 km/h (2 Bft) 95,74 %
11.02.2016 16:46 6,6 C 6,7 C 5,0 C 80 % 0 lf 1004,2 hPa 0,0 l/m 2 min 0 min 62 W/m 8,4 km/h (2 Bft) 95,74 %
11.02.2016 16:48 6,6 C 6,7 C 4,4 C 80 % 0 lf 1004,1 hPa 0,0 l/m 2 min 0 min 59 W/m 10,5 km/h (2 Bft) 95,74 %
11.02.2016 16:50 6,5 C 6,7 C 4,4 C 80 % 0 lf 1004,1 hPa 0,0 l/m 2 min 0 min 57 W/m 10,5 km/h (2 Bft) 93,48 %
11.02.2016 16:52 6,5 C 6,7 C 4,4 C 80 % 0 lf 1004,2 hPa 0,0 l/m 2 min 0 min 54 W/m 8,4 km/h (2 Bft) 95,74 %
11.02.2016 16:54 6,5 C 6,7 C 4,4 C 80 % 0 lf 1004,2 hPa 0,0 l/m 2 min 0 min 52 W/m 6,3 km/h (2 Bft) 91,49 %
11.02.2016 16:56 6,4 C 6,7 C 4,4 C 80 % 0 lf 1004,2 hPa 0,0 l/m 2 min 0 min 50 W/m 8,4 km/h (2 Bft) 95,74 %
11.02.2016 16:58 6,4 C 6,1 C 4,4 C 80 % 0 lf 1004,2 hPa 0,0 l/m 2 min 0 min 47 W/m 8,4 km/h (2 Bft) 95,74 %
11.02.2016 17:00 6,4 C 6,1 C 4,4 C 80 % 0 lf 1004,2 hPa 0,0 l/m 2 min 0 min 45 W/m 8,4 km/h (2 Bft) 95,74 %
11.02.2016 17:02 6,4 C 6,1 C 4,4 C 80 % 0 lf 1004,1 hPa 0,0 l/m 2 min 0 min 43 W/m 10,5 km/h (2 Bft) 93,48 %
11.02.2016 17:04 6,4 C 6,1 C 4,4 C 80 % 0 lf 1004,2 hPa 0,0 l/m 2 min 0 min 40 W/m 10,5 km/h (2 Bft) 95,74 %
11.02.2016 17:06 6,3 C 6,1 C 4,4 C 80 % 0 lf 1004,2 hPa 0,0 l/m 2 min 0 min 39 W/m 8,4 km/h (2 Bft) 93,62 %
11.02.2016 17:08 6,3 C 6,1 C 3,9 C 80 % 0 lf 1004,2 hPa 0,0 l/m 2 min 0 min 36 W/m 8,4 km/h (2 Bft) 93,62 %
11.02.2016 17:10 6,3 C 5,6 C 3,9 C 81 % 0 lf 1004,3 hPa 0,0 l/m 2 min 0 min 33 W/m 8,4 km/h (2 Bft) 95,74 %
11.02.2016 17:12 6,2 C 5,6 C 3,9 C 81 % 0 lf 1004,3 hPa 0,0 l/m 2 min 0 min 32 W/m 12,6 km/h (3 Bft) 95,65 %
11.02.2016 17:14 6,2 C 5,6 C 3,9 C 81 % 0 lf 1004,3 hPa 0,0 l/m 2 min 0 min 29 W/m 10,5 km/h (2 Bft) 97,87 %
11.02.2016 17:16 6,1 C 5,6 C 3,9 C 81 % 0 lf 1004,2 hPa 0,0 l/m 2 min 0 min 26 W/m 6,3 km/h (2 Bft) 93,62 %
11.02.2016 17:18 6,1 C 5,6 C 3,9 C 81 % 0 lf 1004,2 hPa 0,0 l/m 2 min 0 min 25 W/m 8,4 km/h (2 Bft) 95,74 %
11.02.2016 17:20 6,1 C 5,6 C 3,9 C 81 % 0 lf 1004,2 hPa 0,0 l/m 2 min 0 min 22 W/m 6,3 km/h (2 Bft) 95,74 %
11.02.2016 17:22 6,0 C 5,0 C 3,9 C 81 % 0 lf 1004,1 hPa 0,0 l/m 2 min 0 min 20 W/m 6,3 km/h (2 Bft) 95,74 %
11.02.2016 17:24 6,0 C 5,0 C 3,9 C 81 % 0 lf 1004,2 hPa 0,0 l/m 0 min 0 min 18 W/m 8,4 km/h (2 Bft) 97,83 %
11.02.2016 17:26 5,9 C 5,0 C 3,3 C 81 % 0 lf 1004,2 hPa 0,0 l/m 0 min 0 min 17 W/m 8,4 km/h (2 Bft) 95,74 %
11.02.2016 17:28 5,9 C 5,0 C 3,3 C 81 % 0 lf 1004,2 hPa 0,0 l/m 0 min 0 min 14 W/m 6,3 km/h (2 Bft) 95,74 %
11.02.2016 17:30 5,9 C 5,0 C 3,3 C 81 % 0 lf 1004,2 hPa 0,0 l/m 0 min 0 min 13 W/m 6,3 km/h (2 Bft) 89,36 %
11.02.2016 17:32 5,8 C 4,4 C 3,3 C 81 % 0 lf 1004,2 hPa 0,0 l/m 0 min 0 min 11 W/m 8,4 km/h (2 Bft) 87,23 %
11.02.2016 17:34 5,8 C 4,4 C 3,3 C 81 % 0 lf 1004,2 hPa 0,0 l/m 0 min 0 min 11 W/m 8,4 km/h (2 Bft) 95,74 %
11.02.2016 17:36 5,8 C 5,0 C 2,8 C 81 % 0 lf 1004,3 hPa 0,0 l/m 0 min 0 min 9 W/m 4,2 km/h (1 Bft) 92,31 %
11.02.2016 17:38 5,7 C 4,4 C 2,8 C 81 % 0 lf 1004,2 hPa 0,0 l/m 0 min 0 min 9 W/m 4,2 km/h (1 Bft) 95,74 %
11.02.2016 17:40 5,7 C 4,4 C 2,8 C 81 % 0 lf 1004,2 hPa 0,0 l/m 0 min 0 min 7 W/m 6,3 km/h (2 Bft) 95,74 %
11.02.2016 17:42 5,7 C 4,4 C 2,8 C 81 % 0 lf 1004,3 hPa 0,0 l/m 0 min 0 min 7 W/m 6,3 km/h (2 Bft) 95,74 %
11.02.2016 17:44 5,6 C 4,4 C 2,2 C 81 % 0 lf 1004,3 hPa 0,0 l/m 0 min 0 min 7 W/m 4,2 km/h (1 Bft) 95,74 %
11.02.2016 17:46 5,6 C 4,4 C 2,2 C 81 % 0 lf 1004,3 hPa 0,0 l/m 0 min 0 min 6 W/m 6,3 km/h (2 Bft) 97,56 %
11.02.2016 17:48 5,6 C 4,4 C 2,2 C 81 % 0 lf 1004,3 hPa 0,0 l/m 0 min 0 min 5 W/m 4,2 km/h (1 Bft) 86,96 %
11.02.2016 17:50 5,5 C 3,9 C 2,2 C 81 % 0 lf 1004,3 hPa 0,0 l/m 0 min 0 min 5 W/m 4,2 km/h (1 Bft) 97,87 %
11.02.2016 17:52 5,4 C 3,9 C 2,2 C 81 % 0 lf 1004,3 hPa 0,0 l/m 0 min 0 min 5 W/m 4,2 km/h (1 Bft) 91,30 %
11.02.2016 17:54 5,4 C 3,9 C 2,2 C 81 % 0 lf 1004,3 hPa 0,0 l/m 0 min 0 min 2 W/m 4,2 km/h (1 Bft) 95,74 %
11.02.2016 17:56 5,4 C 3,9 C 1,7 C 81 % 0 lf 1004,3 hPa 0,0 l/m 0 min 0 min 0 W/m 4,2 km/h (1 Bft) 97,87 %
11.02.2016 17:58 5,3 C 3,9 C 1,7 C 81 % 0 lf 1004,3 hPa 0,0 l/m 0 min 0 min 0 W/m 4,2 km/h (1 Bft) 97,87 %
11.02.2016 18:00 5,3 C 3,9 C 1,7 C 81 % 0 lf 1004,4 hPa 0,0 l/m 0 min 0 min 0 W/m 6,3 km/h (2 Bft) 100,00 %
11.02.2016 18:02 5,2 C 3,9 C 1,7 C 82 % 0 lf 1004,3 hPa 0,0 l/m 0 min 0 min 0 W/m 6,3 km/h (2 Bft) 95,74 %
11.02.2016 18:04 5,2 C 4,4 C 1,7 C 82 % 0 lf 1004,3 hPa 0,0 l/m 0 min 0 min 0 W/m 4,2 km/h (1 Bft) 94,44 %
11.02.2016 18:06 5,2 C 4,4 C 1,7 C 82 % 0 lf 1004,3 hPa 0,0 l/m 0 min 0 min 0 W/m 4,2 km/h (1 Bft) 100,00 %
11.02.2016 18:08 5,1 C 4,4 C 1,7 C 82 % 0 lf 1004,3 hPa 0,0 l/m 0 min 0 min 0 W/m 4,2 km/h (1 Bft) 100,00 %
11.02.2016 18:10 5,1 C 3,9 C 1,7 C 82 % 0 lf 1004,3 hPa 0,0 l/m 0 min 0 min 0 W/m 4,2 km/h (1 Bft) 100,00 %
11.02.2016 18:12 5,0 C 4,4 C 2,2 C 82 % 0 lf 1004,3 hPa 0,0 l/m 0 min 0 min 0 W/m 6,3 km/h (2 Bft) 95,74 %
11.02.2016 18:14 4,9 C 4,4 C 2,2 C 82 % 0 lf 1004,3 hPa 0,0 l/m 0 min 0 min 0 W/m 10,5 km/h (2 Bft) 100,00 %
11.02.2016 18:16 4,9 C 4,4 C 2,2 C 83 % 0 lf 1004,4 hPa 0,0 l/m 0 min 0 min 0 W/m 4,2 km/h (1 Bft) 100,00 %
11.02.2016 18:18 4,9 C 4,4 C 2,2 C 83 % 0 lf 1004,4 hPa 0,0 l/m 0 min 0 min 0 W/m 6,3 km/h (2 Bft) 100,00 %
11.02.2016 18:20 4,8 C 4,4 C 2,2 C 83 % 0 lf 1004,4 hPa 0,0 l/m 0 min 0 min 0 W/m 8,4 km/h (2 Bft) 100,00 %
11.02.2016 18:22 4,8 C 4,4 C 2,8 C 83 % 0 lf 1004,4 hPa 0,0 l/m 0 min 0 min 0 W/m 8,4 km/h (2 Bft) 97,87 %
11.02.2016 18:24 4,8 C 4,4 C 2,8 C 83 % 0 lf 1004,4 hPa 0,0 l/m 0 min 0 min 0 W/m 4,2 km/h (1 Bft) 97,87 %
11.02.2016 18:26 4,7 C 4,4 C 2,2 C 84 % 0 lf 1004,3 hPa 0,0 l/m 0 min 0 min 0 W/m 6,3 km/h (2 Bft) 100,00 %
11.02.2016 18:28 4,7 C 4,4 C 2,2 C 84 % 0 lf 1004,4 hPa 0,0 l/m 0 min 0 min 0 W/m 6,3 km/h (2 Bft) 97,87 %
11.02.2016 18:30 4,7 C 4,4 C 2,2 C 84 % 0 lf 1004,4 hPa 0,0 l/m 0 min 0 min 0 W/m 6,3 km/h (2 Bft) 97,87 %
11.02.2016 18:32 4,7 C 4,4 C 2,2 C 84 % 0 lf 1004,4 hPa 0,0 l/m 0 min 0 min 0 W/m 4,2 km/h (1 Bft) 95,65 %
11.02.2016 18:34 4,6 C 4,4 C 2,2 C 84 % 0 lf 1004,4 hPa 0,0 l/m 0 min 0 min 0 W/m 6,3 km/h (2 Bft) 97,87 %
11.02.2016 18:36 4,6 C 4,4 C 2,2 C 84 % 0 lf 1004,3 hPa 0,0 l/m 0 min 0 min 0 W/m 6,3 km/h (2 Bft) 91,49 %
11.02.2016 18:38 4,6 C 4,4 C 2,2 C 84 % 0 lf 1004,4 hPa 0,0 l/m 0 min 0 min 0 W/m 6,3 km/h (2 Bft) 95,74 %
11.02.2016 18:40 4,6 C 4,4 C 2,2 C 84 % 0 lf 1004,3 hPa 0,0 l/m 0 min 0 min 0 W/m 6,3 km/h (2 Bft) 95,74 %
11.02.2016 18:42 4,6 C 4,4 C 2,2 C 85 % 0 lf 1004,3 hPa 0,0 l/m 0 min 0 min 0 W/m 8,4 km/h (2 Bft) 97,87 %
11.02.2016 18:44 4,5 C 4,4 C 2,2 C 84 % 0 lf 1004,3 hPa 0,0 l/m 0 min 0 min 0 W/m 6,3 km/h (2 Bft) 97,83 %
11.02.2016 18:46 4,5 C 3,9 C 2,2 C 85 % 0 lf 1004,3 hPa 0,0 l/m 0 min 0 min 0 W/m 6,3 km/h (2 Bft) 97,87 %
11.02.2016 18:48 4,5 C 3,9 C 1,7 C 85 % 0 lf 1004,3 hPa 0,0 l/m 0 min 0 min 0 W/m 6,3 km/h (2 Bft) 95,74 %
11.02.2016 18:50 4,4 C 3,9 C 1,7 C 85 % 0 lf 1004,3 hPa 0,0 l/m 0 min 0 min 0 W/m 6,3 km/h (2 Bft) 97,87 %
11.02.2016 18:52 4,4 C 3,9 C 1,7 C 85 % 0 lf 1004,3 hPa 0,0 l/m 0 min 0 min 0 W/m 6,3 km/h (2 Bft) 95,74 %
11.02.2016 18:54 4,4 C 3,9 C 1,7 C 85 % 0 lf 1004,3 hPa 0,0 l/m 0 min 0 min 0 W/m 6,3 km/h (2 Bft) 95,74 %
11.02.2016 18:56 4,4 C 3,3 C 1,7 C 85 % 0 lf 1004,3 hPa 0,0 l/m 0 min 0 min 0 W/m 6,3 km/h (2 Bft) 97,83 %
11.02.2016 18:58 4,4 C 3,9 C 1,7 C 85 % 0 lf 1004,3 hPa 0,0 l/m 0 min 0 min 0 W/m 8,4 km/h (2 Bft) 95,74 %
11.02.2016 19:00 4,3 C 3,9 C 1,7 C 85 % 0 lf 1004,3 hPa 0,0 l/m 0 min 0 min 0 W/m 8,4 km/h (2 Bft) 95,74 %
11.02.2016 19:02 4,3 C 3,9 C 1,7 C 85 % 0 lf 1004,3 hPa 0,0 l/m 0 min 0 min 0 W/m 8,4 km/h (2 Bft) 95,74 %
11.02.2016 19:04 4,3 C 3,9 C 1,7 C 85 % 0 lf 1004,3 hPa 0,0 l/m 0 min 0 min 0 W/m 10,5 km/h (2 Bft) 97,87 %
11.02.2016 19:06 4,3 C 4,4 C 2,2 C 85 % 0 lf 1004,4 hPa 0,0 l/m 0 min 0 min 0 W/m 8,4 km/h (2 Bft) 97,87 %
11.02.2016 19:08 4,2 C 4,4 C 2,2 C 86 % 0 lf 1004,4 hPa 0,0 l/m 0 min 0 min 0 W/m 10,5 km/h (2 Bft) 97,83 %
11.02.2016 19:10 4,2 C 4,4 C 2,2 C 86 % 0 lf 1004,4 hPa 0,0 l/m 0 min 0 min 0 W/m 8,4 km/h (2 Bft) 95,74 %
11.02.2016 19:12 4,2 C 4,4 C 2,2 C 86 % 0 lf 1004,4 hPa 0,0 l/m 0 min 0 min 0 W/m 10,5 km/h (2 Bft) 97,50 %
11.02.2016 19:14 4,2 C 4,4 C 2,8 C 86 % 0 lf 1004,4 hPa 0,0 l/m 0 min 0 min 0 W/m 10,5 km/h (2 Bft) 91,49 %
11.02.2016 19:16 4,2 C 4,4 C 2,8 C 86 % 0 lf 1004,4 hPa 0,0 l/m 0 min 0 min 0 W/m 10,5 km/h (2 Bft) 97,87 %
11.02.2016 19:18 4,2 C 4,4 C 2,8 C 86 % 0 lf 1004,4 hPa 0,0 l/m 0 min 0 min 0 W/m 8,4 km/h (2 Bft) 95,74 %
11.02.2016 19:20 4,2 C 4,4 C 2,8 C 87 % 0 lf 1004,4 hPa 0,0 l/m 0 min 0 min 0 W/m 8,4 km/h (2 Bft) 97,83 %
11.02.2016 19:22 4,2 C 4,4 C 2,8 C 87 % 0 lf 1004,5 hPa 0,0 l/m 0 min 0 min 0 W/m 8,4 km/h (2 Bft) 100,00 %
11.02.2016 19:24 4,2 C 4,4 C 3,3 C 87 % 0 lf 1004,4 hPa 0,0 l/m 0 min 0 min 0 W/m 10,5 km/h (2 Bft) 97,87 %
11.02.2016 19:26 4,2 C 5,0 C 3,3 C 87 % 0 lf 1004,5 hPa 0,0 l/m 0 min 0 min 0 W/m 10,5 km/h (2 Bft) 97,87 %
11.02.2016 19:28 4,2 C 5,0 C 3,3 C 87 % 0 lf 1004,4 hPa 0,0 l/m 0 min 0 min 0 W/m 8,4 km/h (2 Bft) 95,74 %
11.02.2016 19:30 4,2 C 5,0 C 3,3 C 88 % 0 lf 1004,4 hPa 0,0 l/m 0 min 0 min 0 W/m 8,4 km/h (2 Bft) 80,85 %
11.02.2016 19:32 4,2 C 5,0 C 3,3 C 88 % 0 lf 1004,4 hPa 0,0 l/m 0 min 0 min 0 W/m 10,5 km/h (2 Bft) 95,65 %
11.02.2016 19:34 4,3 C 4,4 C 3,3 C 88 % 0 lf 1004,4 hPa 0,0 l/m 0 min 0 min 0 W/m 10,5 km/h (2 Bft) 95,74 %
11.02.2016 19:36 4,3 C 4,4 C 2,8 C 88 % 0 lf 1004,3 hPa 0,0 l/m 0 min 0 min 0 W/m 10,5 km/h (2 Bft) 93,62 %
11.02.2016 19:38 4,3 C 4,4 C 2,8 C 88 % 0 lf 1004,3 hPa 0,0 l/m 0 min 0 min 0 W/m 8,4 km/h (2 Bft) 95,74 %
11.02.2016 19:40 4,3 C 4,4 C 2,8 C 88 % 0 lf 1004,3 hPa 0,0 l/m 0 min 0 min 0 W/m 6,3 km/h (2 Bft) 93,62 %
11.02.2016 19:42 4,3 C 4,4 C 2,8 C 88 % 0 lf 1004,3 hPa 0,0 l/m 0 min 0 min 0 W/m 8,4 km/h (2 Bft) 95,74 %
11.02.2016 19:44 4,3 C 4,4 C 2,8 C 88 % 0 lf 1004,3 hPa 0,0 l/m 0 min 0 min 0 W/m 6,3 km/h (2 Bft) 91,49 %
11.02.2016 19:46 4,3 C 3,9 C 2,2 C 88 % 0 lf 1004,3 hPa 0,0 l/m 0 min 0 min 0 W/m 4,2 km/h (1 Bft) 93,48 %
11.02.2016 19:48 4,3 C 3,9 C 2,2 C 88 % 0 lf 1004,4 hPa 0,0 l/m 0 min 0 min 0 W/m 4,2 km/h (1 Bft) 95,74 %
11.02.2016 19:50 4,3 C 3,9 C 2,2 C 88 % 0 lf 1004,4 hPa 0,0 l/m 0 min 0 min 0 W/m 6,3 km/h (2 Bft) 97,87 %
11.02.2016 19:52 4,3 C 3,3 C 1,7 C 88 % 0 lf 1004,4 hPa 0,0 l/m 0 min 0 min 0 W/m 6,3 km/h (2 Bft) 97,87 %
11.02.2016 19:54 4,3 C 3,9 C 2,2 C 88 % 0 lf 1004,4 hPa 0,0 l/m 0 min 0 min 0 W/m 10,5 km/h (2 Bft) 95,74 %
11.02.2016 19:56 4,3 C 3,9 C 2,2 C 88 % 0 lf 1004,4 hPa 0,0 l/m 0 min 0 min 0 W/m 4,2 km/h (1 Bft) 97,83 %
11.02.2016 19:58 4,2 C 3,9 C 2,2 C 88 % 0 lf 1004,4 hPa 0,0 l/m 0 min 0 min 0 W/m 8,4 km/h (2 Bft) 95,74 %
11.02.2016 20:00 4,2 C 3,3 C 2,2 C 88 % 0 lf 1004,4 hPa 0,0 l/m 0 min 0 min 0 W/m 6,3 km/h (2 Bft) 97,87 %
11.02.2016 20:02 4,2 C 3,3 C 2,2 C 88 % 0 lf 1004,4 hPa 0,0 l/m 0 min 0 min 0 W/m 4,2 km/h (1 Bft) 95,74 %
11.02.2016 20:04 4,2 C 3,3 C 1,7 C 88 % 0 lf 1004,4 hPa 0,0 l/m 0 min 0 min 0 W/m 8,4 km/h (2 Bft) 95,74 %
11.02.2016 20:06 4,2 C 2,8 C 1,7 C 88 % 0 lf 1004,4 hPa 0,0 l/m 0 min 0 min 0 W/m 4,2 km/h (1 Bft) 93,62 %
11.02.2016 20:08 4,2 C 2,8 C 1,7 C 88 % 0 lf 1004,4 hPa 0,0 l/m 0 min 0 min 0 W/m 2,1 km/h (1 Bft) 95,65 %
11.02.2016 20:10 4,2 C 2,8 C 1,7 C 88 % 0 lf 1004,4 hPa 0,0 l/m 0 min 0 min 0 W/m 4,2 km/h (1 Bft) 95,74 %
11.02.2016 20:12 4,1 C 2,8 C 1,1 C 88 % 0 lf 1004,4 hPa 0,0 l/m 0 min 0 min 0 W/m 4,2 km/h (1 Bft) 100,00 %
11.02.2016 20:14 4,1 C 3,3 C 1,1 C 88 % 0 lf 1004,4 hPa 0,0 l/m 0 min 0 min 0 W/m 8,4 km/h (2 Bft) 97,87 %
11.02.2016 20:16 4,1 C 3,3 C 1,1 C 88 % 0 lf 1004,5 hPa 0,0 l/m 0 min 0 min 0 W/m 6,3 km/h (2 Bft) 97,87 %
11.02.2016 20:18 4,1 C 3,3 C 1,1 C 88 % 0 lf 1004,4 hPa 0,0 l/m 0 min 0 min 0 W/m 0,0 km/h (0 Bft) 97,87 %
11.02.2016 20:20 4,0 C 3,3 C 1,1 C 88 % 0 lf 1004,4 hPa 0,0 l/m 0 min 0 min 0 W/m 6,3 km/h (2 Bft) 95,65 %
11.02.2016 20:22 4,0 C 3,3 C 1,1 C 88 % 0 lf 1004,4 hPa 0,0 l/m 0 min 0 min 0 W/m 6,3 km/h (2 Bft) 95,74 %
11.02.2016 20:24 3,9 C 3,3 C 1,1 C 88 % 0 lf 1004,4 hPa 0,0 l/m 0 min 0 min 0 W/m 8,4 km/h (2 Bft) 100,00 %
11.02.2016 20:26 3,9 C 3,3 C 1,1 C 88 % 0 lf 1004,4 hPa 0,0 l/m 0 min 0 min 0 W/m 8,4 km/h (2 Bft) 100,00 %
11.02.2016 20:28 3,9 C 3,3 C 1,1 C 88 % 0 lf 1004,4 hPa 0,0 l/m 0 min 0 min 0 W/m 4,2 km/h (1 Bft) 95,74 %
11.02.2016 20:30 3,9 C 3,3 C 1,1 C 88 % 0 lf 1004,4 hPa 0,0 l/m 0 min 0 min 0 W/m 8,4 km/h (2 Bft) 100,00 %
11.02.2016 20:32 3,9 C 3,3 C 1,7 C 88 % 0 lf 1004,4 hPa 0,0 l/m 0 min 0 min 0 W/m 6,3 km/h (2 Bft) 97,87 %
11.02.2016 20:34 3,8 C 3,3 C 1,1 C 88 % 0 lf 1004,4 hPa 0,0 l/m 0 min 0 min 0 W/m 6,3 km/h (2 Bft) 100,00 %
11.02.2016 20:36 3,8 C 3,3 C 1,1 C 88 % 0 lf 1004,4 hPa 0,0 l/m 0 min 0 min 0 W/m 2,1 km/h (1 Bft) 100,00 %
11.02.2016 20:38 3,8 C 2,8 C 1,1 C 88 % 0 lf 1004,4 hPa 0,0 l/m 0 min 0 min 0 W/m 4,2 km/h (1 Bft) 95,74 %
11.02.2016 20:40 3,7 C 2,8 C 1,1 C 88 % 0 lf 1004,4 hPa 0,0 l/m 0 min 0 min 0 W/m 6,3 km/h (2 Bft) 97,87 %
11.02.2016 20:42 3,7 C 2,2 C 1,1 C 88 % 0 lf 1004,4 hPa 0,0 l/m 0 min 0 min 0 W/m 4,2 km/h (1 Bft) 97,87 %
11.02.2016 20:44 3,7 C 2,2 C 1,1 C 88 % 0 lf 1004,5 hPa 0,0 l/m 0 min 0 min 0 W/m 4,2 km/h (1 Bft) 100,00 %
11.02.2016 20:46 3,7 C 2,2 C 1,1 C 88 % 0 lf 1004,5 hPa 0,0 l/m 0 min 0 min 0 W/m 2,1 km/h (1 Bft) 100,00 %
11.02.2016 20:48 3,6 C 2,2 C 1,1 C 88 % 0 lf 1004,5 hPa 0,0 l/m 0 min 0 min 0 W/m 6,3 km/h (2 Bft) 100,00 %
11.02.2016 20:50 3,6 C 2,2 C 1,1 C 88 % 0 lf 1004,5 hPa 0,0 l/m 0 min 0 min 0 W/m 10,5 km/h (2 Bft) 96,23 %
11.02.2016 20:52 3,6 C 2,8 C 1,1 C 88 % 0 lf 1004,5 hPa 0,0 l/m 0 min 0 min 0 W/m 8,4 km/h (2 Bft) 100,00 %
11.02.2016 20:54 3,5 C 2,8 C 1,1 C 88 % 0 lf 1004,5 hPa 0,0 l/m 0 min 0 min 0 W/m 8,4 km/h (2 Bft) 93,62 %
11.02.2016 20:56 3,5 C 2,8 C 1,1 C 88 % 0 lf 1004,5 hPa 0,0 l/m 0 min 0 min 0 W/m 6,3 km/h (2 Bft) 95,74 %
11.02.2016 20:58 3,4 C 2,8 C 1,7 C 88 % 0 lf 1004,5 hPa 0,0 l/m 0 min 0 min 0 W/m 6,3 km/h (2 Bft) 95,74 %
11.02.2016 21:00 3,4 C 2,8 C 1,1 C 88 % 0 lf 1004,5 hPa 0,0 l/m 0 min 0 min 0 W/m 4,2 km/h (1 Bft) 93,62 %
11.02.2016 21:02 3,4 C 2,2 C 1,1 C 89 % 0 lf 1004,5 hPa 0,0 l/m 0 min 0 min 0 W/m 6,3 km/h (2 Bft) 95,12 %
11.02.2016 21:04 3,4 C 2,2 C 1,1 C 89 % 0 lf 1004,5 hPa 0,0 l/m 0 min 0 min 0 W/m 8,4 km/h (2 Bft) 95,74 %
11.02.2016 21:06 3,3 C 2,2 C 1,1 C 89 % 0 lf 1004,5 hPa 0,0 l/m 0 min 0 min 0 W/m 6,3 km/h (2 Bft) 96,15 %
11.02.2016 21:08 3,3 C 2,8 C 1,1 C 89 % 0 lf 1004,5 hPa 0,0 l/m 0 min 0 min 0 W/m 8,4 km/h (2 Bft) 89,36 %
11.02.2016 21:10 3,3 C 2,2 C 1,1 C 89 % 0 lf 1004,5 hPa 0,0 l/m 0 min 0 min 0 W/m 8,4 km/h (2 Bft) 89,36 %
11.02.2016 21:12 3,3 C 2,2 C 0,6 C 89 % 0 lf 1004,6 hPa 0,0 l/m 0 min 0 min 0 W/m 4,2 km/h (1 Bft) 93,62 %
11.02.2016 21:14 3,3 C 2,2 C 0,6 C 89 % 0 lf 1004,6 hPa 0,0 l/m 0 min 0 min 0 W/m 4,2 km/h (1 Bft) 91,49 %
11.02.2016 21:16 3,3 C 2,2 C 0,6 C 89 % 0 lf 1004,6 hPa 0,0 l/m 0 min 0 min 0 W/m 6,3 km/h (2 Bft) 92,68 %
11.02.2016 21:18 3,2 C 2,8 C 1,1 C 89 % 0 lf 1004,6 hPa 0,0 l/m 0 min 0 min 0 W/m 8,4 km/h (2 Bft) 93,48 %
11.02.2016 21:20 3,2 C 2,8 C 1,1 C 89 % 0 lf 1004,6 hPa 0,0 l/m 0 min 0 min 0 W/m 10,5 km/h (2 Bft) 90,57 %
11.02.2016 21:22 3,2 C 2,8 C 1,1 C 89 % 0 lf 1004,6 hPa 0,0 l/m 0 min 0 min 0 W/m 10,5 km/h (2 Bft) 93,62 %
11.02.2016 21:24 3,2 C 2,8 C 1,1 C 90 % 0 lf 1004,6 hPa 0,0 l/m 0 min 0 min 0 W/m 6,3 km/h (2 Bft) 95,74 %
11.02.2016 21:26 3,2 C 2,2 C 1,1 C 89 % 0 lf 1004,5 hPa 0,0 l/m 0 min 0 min 0 W/m 10,5 km/h (2 Bft) 91,49 %
11.02.2016 21:28 3,2 C 2,8 C 1,1 C 90 % 0 lf 1004,6 hPa 0,0 l/m 0 min 0 min 0 W/m 12,6 km/h (3 Bft) 93,48 %
11.02.2016 21:30 3,2 C 2,8 C 1,7 C 90 % 0 lf 1004,6 hPa 0,0 l/m 0 min 0 min 0 W/m 10,5 km/h (2 Bft) 93,62 %
11.02.2016 21:32 3,2 C 2,8 C 1,7 C 90 % 0 lf 1004,6 hPa 0,0 l/m 0 min 0 min 0 W/m 10,5 km/h (2 Bft) 92,68 %
11.02.2016 21:34 3,1 C 2,8 C 1,7 C 90 % 0 lf 1004,6 hPa 0,0 l/m 0 min 0 min 0 W/m 8,4 km/h (2 Bft) 93,62 %
11.02.2016 21:36 3,1 C 2,8 C 1,7 C 90 % 0 lf 1004,7 hPa 0,0 l/m 0 min 0 min 0 W/m 8,4 km/h (2 Bft) 93,62 %
11.02.2016 21:38 3,1 C 2,8 C 1,1 C 90 % 0 lf 1004,7 hPa 0,0 l/m 0 min 0 min 0 W/m 10,5 km/h (2 Bft) 95,74 %
11.02.2016 21:40 3,1 C 2,2 C 1,1 C 91 % 0 lf 1004,7 hPa 0,0 l/m 0 min 0 min 0 W/m 6,3 km/h (2 Bft) 97,83 %
11.02.2016 21:42 3,1 C 2,8 C 1,1 C 91 % 0 lf 1004,7 hPa 0,0 l/m 0 min 0 min 0 W/m 10,5 km/h (2 Bft) 95,74 %
11.02.2016 21:44 3,1 C 2,8 C 1,1 C 91 % 0 lf 1004,7 hPa 0,0 l/m 0 min 0 min 0 W/m 6,3 km/h (2 Bft) 95,74 %
11.02.2016 21:46 3,1 C 2,8 C 1,1 C 91 % 0 lf 1004,7 hPa 0,0 l/m 0 min 0 min 0 W/m 6,3 km/h (2 Bft) 93,62 %
11.02.2016 21:48 3,1 C 2,8 C 1,1 C 91 % 0 lf 1004,7 hPa 0,0 l/m 0 min 0 min 0 W/m 12,6 km/h (3 Bft) 95,74 %
11.02.2016 21:50 3,1 C 2,8 C 1,1 C 91 % 0 lf 1004,7 hPa 0,0 l/m 0 min 0 min 0 W/m 8,4 km/h (2 Bft) 97,87 %
11.02.2016 21:52 3,0 C 2,8 C 1,1 C 91 % 0 lf 1004,7 hPa 0,0 l/m 0 min 0 min 0 W/m 8,4 km/h (2 Bft) 95,74 %
11.02.2016 21:54 3,0 C 2,8 C 1,7 C 91 % 0 lf 1004,7 hPa 0,0 l/m 0 min 0 min 0 W/m 8,4 km/h (2 Bft) 95,65 %
11.02.2016 21:56 3,0 C 2,8 C 1,7 C 91 % 0 lf 1004,7 hPa 0,0 l/m 0 min 0 min 0 W/m 8,4 km/h (2 Bft) 95,74 %
11.02.2016 21:58 3,0 C 3,3 C 1,7 C 91 % 0 lf 1004,7 hPa 0,0 l/m 0 min 0 min 0 W/m 8,4 km/h (2 Bft) 97,87 %
11.02.2016 22:00 3,0 C 3,3 C 1,7 C 91 % 0 lf 1004,7 hPa 0,0 l/m 0 min 0 min 0 W/m 8,4 km/h (2 Bft) 97,87 %
11.02.2016 22:02 3,0 C 3,3 C 1,7 C 91 % 0 lf 1004,7 hPa 0,0 l/m 0 min 0 min 0 W/m 8,4 km/h (2 Bft) 95,74 %
11.02.2016 22:04 3,0 C 3,3 C 1,7 C 91 % 0 lf 1004,7 hPa 0,0 l/m 0 min 0 min 0 W/m 8,4 km/h (2 Bft) 95,65 %
11.02.2016 22:06 3,0 C 2,8 C 1,7 C 91 % 0 lf 1004,7 hPa 0,0 l/m 0 min 0 min 0 W/m 6,3 km/h (2 Bft) 93,62 %
11.02.2016 22:08 3,0 C 3,3 C 1,7 C 91 % 0 lf 1004,7 hPa 0,0 l/m 0 min 0 min 0 W/m 6,3 km/h (2 Bft) 97,87 %
11.02.2016 22:10 3,0 C 3,3 C 1,7 C 91 % 0 lf 1004,7 hPa 0,0 l/m 0 min 0 min 0 W/m 6,3 km/h (2 Bft) 97,87 %
11.02.2016 22:12 3,0 C 3,3 C 1,7 C 91 % 0 lf 1004,7 hPa 0,0 l/m 0 min 0 min 0 W/m 12,6 km/h (3 Bft) 100,00 %
11.02.2016 22:14 3,0 C 3,3 C 1,7 C 92 % 0 lf 1004,7 hPa 0,0 l/m 0 min 0 min 0 W/m 8,4 km/h (2 Bft) 97,87 %
11.02.2016 22:16 3,0 C 3,3 C 2,2 C 92 % 0 lf 1004,6 hPa 0,0 l/m 0 min 0 min 0 W/m 10,5 km/h (2 Bft) 97,83 %
11.02.2016 22:18 3,0 C 3,3 C 2,2 C 92 % 0 lf 1004,6 hPa 0,0 l/m 0 min 0 min 0 W/m 10,5 km/h (2 Bft) 97,87 %
11.02.2016 22:20 3,0 C 3,3 C 2,2 C 92 % 0 lf 1004,7 hPa 0,0 l/m 0 min 0 min 0 W/m 10,5 km/h (2 Bft) 95,74 %
11.02.2016 22:22 3,0 C 3,3 C 2,2 C 92 % 0 lf 1004,6 hPa 0,0 l/m 0 min 0 min 0 W/m 10,5 km/h (2 Bft) 100,00 %
11.02.2016 22:24 3,0 C 3,3 C 2,2 C 92 % 0 lf 1004,6 hPa 0,0 l/m 0 min 0 min 0 W/m 8,4 km/h (2 Bft) 97,87 %
11.02.2016 22:26 3,0 C 3,3 C 2,2 C 92 % 0 lf 1004,6 hPa 0,0 l/m 0 min 0 min 0 W/m 10,5 km/h (2 Bft) 100,00 %
11.02.2016 22:28 3,0 C 3,3 C 2,2 C 92 % 0 lf 1004,6 hPa 0,0 l/m 0 min 0 min 0 W/m 8,4 km/h (2 Bft) 95,74 %
11.02.2016 22:30 3,0 C 3,3 C 2,2 C 92 % 0 lf 1004,6 hPa 0,0 l/m 0 min 0 min 0 W/m 8,4 km/h (2 Bft) 100,00 %
11.02.2016 22:32 3,1 C 3,3 C 2,2 C 92 % 0 lf 1004,6 hPa 0,0 l/m 0 min 0 min 0 W/m 10,5 km/h (2 Bft) 97,83 %
11.02.2016 22:34 3,1 C 3,3 C 2,2 C 92 % 0 lf 1004,6 hPa 0,0 l/m 0 min 0 min 0 W/m 10,5 km/h (2 Bft) 98,00 %
11.02.2016 22:36 3,1 C 3,3 C 2,2 C 92 % 0 lf 1004,5 hPa 0,0 l/m 0 min 0 min 0 W/m 6,3 km/h (2 Bft) 94,59 %
11.02.2016 22:38 3,1 C 3,3 C 2,2 C 92 % 0 lf 1004,5 hPa 0,0 l/m 0 min 0 min 0 W/m 8,4 km/h (2 Bft) 97,87 %
11.02.2016 22:40 3,1 C 3,3 C 2,2 C 92 % 0 lf 1004,5 hPa 0,0 l/m 0 min 0 min 0 W/m 14,6 km/h (3 Bft) 95,74 %
11.02.2016 22:42 3,1 C 3,3 C 2,2 C 92 % 0 lf 1004,5 hPa 0,0 l/m 0 min 0 min 0 W/m 12,6 km/h (3 Bft) 94,34 %
11.02.2016 22:44 3,1 C 3,3 C 2,2 C 93 % 0 lf 1004,5 hPa 0,0 l/m 0 min 0 min 0 W/m 10,5 km/h (2 Bft) 95,74 %
11.02.2016 22:46 3,1 C 3,3 C 2,2 C 93 % 0 lf 1004,5 hPa 0,0 l/m 0 min 0 min 0 W/m 8,4 km/h (2 Bft) 95,74 %
11.02.2016 22:48 3,1 C 3,3 C 2,2 C 93 % 0 lf 1004,5 hPa 0,0 l/m 0 min 0 min 0 W/m 10,5 km/h (2 Bft) 93,62 %
11.02.2016 22:50 3,1 C 3,3 C 2,2 C 93 % 0 lf 1004,5 hPa 0,0 l/m 0 min 0 min 0 W/m 8,4 km/h (2 Bft) 96,00 %
11.02.2016 22:52 3,1 C 3,3 C 2,2 C 93 % 0 lf 1004,4 hPa 0,0 l/m 0 min 0 min 0 W/m 6,3 km/h (2 Bft) 91,49 %
11.02.2016 22:54 3,1 C 3,3 C 2,2 C 93 % 0 lf 1004,5 hPa 0,0 l/m 0 min 0 min 0 W/m 6,3 km/h (2 Bft) 89,13 %
11.02.2016 22:56 3,1 C 3,3 C 2,2 C 93 % 0 lf 1004,5 hPa 0,0 l/m 0 min 0 min 0 W/m 8,4 km/h (2 Bft) 95,74 %
11.02.2016 22:58 3,1 C 3,3 C 2,2 C 93 % 0 lf 1004,4 hPa 0,0 l/m 0 min 0 min 0 W/m 10,5 km/h (2 Bft) 93,62 %
11.02.2016 23:00 3,1 C 3,3 C 2,2 C 93 % 0 lf 1004,4 hPa 0,0 l/m 0 min 0 min 0 W/m 8,4 km/h (2 Bft) 92,86 %
11.02.2016 23:02 3,1 C 3,3 C 2,2 C 93 % 0 lf 1004,4 hPa 0,0 l/m 0 min 0 min 0 W/m 8,4 km/h (2 Bft) 94,00 %
11.02.2016 23:04 3,1 C 3,3 C 2,2 C 93 % 0 lf 1004,4 hPa 0,0 l/m 0 min 0 min 0 W/m 6,3 km/h (2 Bft) 95,74 %
11.02.2016 23:06 3,2 C 3,3 C 2,2 C 93 % 0 lf 1004,4 hPa 0,0 l/m 0 min 0 min 0 W/m 8,4 km/h (2 Bft) 95,65 %
11.02.2016 23:08 3,1 C 3,3 C 2,2 C 93 % 0 lf 1004,3 hPa 0,0 l/m 0 min 0 min 0 W/m 8,4 km/h (2 Bft) 93,62 %
11.02.2016 23:10 3,2 C 3,3 C 2,2 C 93 % 0 lf 1004,3 hPa 0,0 l/m 0 min 0 min 0 W/m 8,4 km/h (2 Bft) 93,62 %
11.02.2016 23:12 3,2 C 3,3 C 2,2 C 93 % 0 lf 1004,3 hPa 0,0 l/m 0 min 0 min 0 W/m 6,3 km/h (2 Bft) 93,62 %
11.02.2016 23:14 3,2 C 3,3 C 2,2 C 93 % 0 lf 1004,3 hPa 0,0 l/m 0 min 0 min 0 W/m 8,4 km/h (2 Bft) 97,14 %
11.02.2016 23:16 3,2 C 3,3 C 2,2 C 93 % 0 lf 1004,3 hPa 0,0 l/m 0 min 0 min 0 W/m 8,4 km/h (2 Bft) 91,49 %
11.02.2016 23:18 3,2 C 3,3 C 2,2 C 93 % 0 lf 1004,3 hPa 0,0 l/m 0 min 0 min 0 W/m 4,2 km/h (1 Bft) 91,49 %
11.02.2016 23:20 3,2 C 3,3 C 2,2 C 93 % 0 lf 1004,3 hPa 0,0 l/m 0 min 0 min 0 W/m 6,3 km/h (2 Bft) 95,65 %
11.02.2016 23:22 3,2 C 3,3 C 2,2 C 93 % 0 lf 1004,2 hPa 0,0 l/m 0 min 0 min 0 W/m 6,3 km/h (2 Bft) 96,36 %
11.02.2016 23:24 3,2 C 3,3 C 2,2 C 93 % 0 lf 1004,3 hPa 0,0 l/m 0 min 0 min 0 W/m 6,3 km/h (2 Bft) 92,00 %
11.02.2016 23:26 3,2 C 3,3 C 2,2 C 93 % 0 lf 1004,3 hPa 0,0 l/m 0 min 0 min 0 W/m 4,2 km/h (1 Bft) 95,74 %
11.02.2016 23:28 3,2 C 3,3 C 2,2 C 93 % 0 lf 1004,2 hPa 0,0 l/m 0 min 0 min 0 W/m 4,2 km/h (1 Bft) 89,36 %
11.02.2016 23:30 3,2 C 3,3 C 2,2 C 93 % 0 lf 1004,2 hPa 0,0 l/m 0 min 0 min 0 W/m 8,4 km/h (2 Bft) 95,74 %
11.02.2016 23:32 3,2 C 3,3 C 2,2 C 93 % 0 lf 1004,2 hPa 0,0 l/m 0 min 0 min 0 W/m 6,3 km/h (2 Bft) 95,74 %
11.02.2016 23:34 3,2 C 3,3 C 2,2 C 93 % 0 lf 1004,1 hPa 0,0 l/m 0 min 0 min 0 W/m 6,3 km/h (2 Bft) 97,14 %
11.02.2016 23:36 3,2 C 3,3 C 2,2 C 93 % 0 lf 1004,2 hPa 0,0 l/m 0 min 0 min 0 W/m 2,1 km/h (1 Bft) 95,74 %
11.02.2016 23:38 3,2 C 3,3 C 2,2 C 93 % 0 lf 1004,2 hPa 0,0 l/m 0 min 0 min 0 W/m 6,3 km/h (2 Bft) 96,36 %
11.02.2016 23:40 3,2 C 3,3 C 2,2 C 93 % 0 lf 1004,2 hPa 0,0 l/m 0 min 0 min 0 W/m 4,2 km/h (1 Bft) 95,92 %
11.02.2016 23:42 3,2 C 3,3 C 2,2 C 93 % 0 lf 1004,2 hPa 0,0 l/m 0 min 0 min 0 W/m 8,4 km/h (2 Bft) 95,74 %
11.02.2016 23:44 3,2 C 3,3 C 2,2 C 93 % 0 lf 1004,1 hPa 0,0 l/m 0 min 0 min 0 W/m 4,2 km/h (1 Bft) 97,87 %
11.02.2016 23:46 3,2 C 3,3 C 2,2 C 93 % 0 lf 1004,1 hPa 0,0 l/m 0 min 0 min 0 W/m 6,3 km/h (2 Bft) 95,74 %
11.02.2016 23:48 3,2 C 3,3 C 2,2 C 93 % 0 lf 1004,2 hPa 0,0 l/m 0 min 0 min 0 W/m 4,2 km/h (1 Bft) 95,74 %
11.02.2016 23:50 3,2 C 3,3 C 2,2 C 93 % 0 lf 1004,2 hPa 0,0 l/m 0 min 0 min 0 W/m 4,2 km/h (1 Bft) 97,87 %
11.02.2016 23:52 3,2 C 3,3 C 2,2 C 93 % 0 lf 1004,2 hPa 0,0 l/m 0 min 0 min 0 W/m 2,1 km/h (1 Bft) 97,87 %
11.02.2016 23:54 3,2 C 3,3 C 2,2 C 93 % 0 lf 1004,2 hPa 0,0 l/m 0 min 0 min 0 W/m 2,1 km/h (1 Bft) 97,22 %
11.02.2016 23:56 3,2 C 3,3 C 2,2 C 93 % 0 lf 1004,2 hPa 0,0 l/m 0 min 0 min 0 W/m 6,3 km/h (2 Bft) 97,83 %
11.02.2016 23:58 3,2 C 3,3 C 2,2 C 93 % 0 lf 1004,2 hPa 0,0 l/m 0 min 0 min 0 W/m 2,1 km/h (1 Bft) 97,87 %
_ Min-Zeit 08:04 07:28 21:12 14:54 10:28 00:00 - - - - 20:18 00:02
Minimum _ 2,4 C 2,2 C 0,6 C 79 % 0 lf 1000,7 hPa - - - - 0,0 km/h (0 Bft) 6,25 %
_ Max-Zeit 14:40 11:58 11:58 00:00 00:00 11:26 00:00 08:14 00:14 13:02 13:04 00:22
Maximum _ 6,9 C 15,0 C 7,8 C 97 % 15 lf 1004,8 hPa 0,0 l/m 2 min 2 min 520 W/m 35,6 km/h
W-SW (5 Bft)
100,00 %
Durchschnitt _ 4,2 C 5,1 C 2,9 C 91 % 6 lf 1003,6 hPa #0,0 l/m #5:54 h #56 min. 155 W/m 14,6 km/h (3 Bft) 95,88 %
© 2016 W. Hausmann